<?xml version="1.0" encoding="UTF-8" standalone="no" ?>
<gpx xmlns="http://www.topografix.com/GPX/1/1" xmlns:xsi="http://www.w3.org/2001/XMLSchema-instance" xsi:schemaLocation="http://www.topografix.com/GPX/1/1 http://www.topografix.com/GPX/1/1/gpx.xsd" version="1.1" creator="VisuGPX - https://www.visugpx.com">
  <metadata>
    <name>Vouvant_MerventAutour_19-22km</name>
    <desc><![CDATA[gnerando idor:8031793_8985849_8987074_9131938]]></desc>
  </metadata>
  <trk>
    <name><![CDATA[Vouvant_Foret_22.5km-8031793]]></name>
    <extensions>
      <line xmlns="http://www.topografix.com/GPX/gpx_style/0/2">
        <color>0000FF</color>
        <width>4</width>
      </line>
    </extensions>
    <trkseg>
      <trkpt lat="46.57247" lon="-0.77096">
        <ele>68</ele>
        <time>2023-11-14T12:04:58Z</time>
      </trkpt>
      <trkpt lat="46.57178" lon="-0.77076">
        <ele>67</ele>
        <time>2023-11-14T12:06:32Z</time>
      </trkpt>
      <trkpt lat="46.57237" lon="-0.76938">
        <ele>70</ele>
        <time>2023-11-14T12:09:01Z</time>
      </trkpt>
      <trkpt lat="46.5719" lon="-0.76797">
        <ele>61</ele>
        <time>2023-11-14T12:11:25Z</time>
      </trkpt>
      <trkpt lat="46.57202" lon="-0.76646">
        <ele>54</ele>
        <time>2023-11-14T12:13:44Z</time>
      </trkpt>
      <trkpt lat="46.57042" lon="-0.76471">
        <ele>76</ele>
        <time>2023-11-14T12:18:11Z</time>
      </trkpt>
      <trkpt lat="46.56789" lon="-0.76689">
        <ele>79</ele>
        <time>2023-11-14T12:24:44Z</time>
      </trkpt>
      <trkpt lat="46.56641" lon="-0.76668">
        <ele>77</ele>
        <time>2023-11-14T12:28:02Z</time>
      </trkpt>
      <trkpt lat="46.5647" lon="-0.76758">
        <ele>77</ele>
        <time>2023-11-14T12:32:05Z</time>
      </trkpt>
      <trkpt lat="46.56131" lon="-0.76608">
        <ele>76</ele>
        <time>2023-11-14T12:39:58Z</time>
      </trkpt>
      <trkpt lat="46.55968" lon="-0.76638">
        <ele>77</ele>
        <time>2023-11-14T12:43:37Z</time>
      </trkpt>
      <trkpt lat="46.55983" lon="-0.76428">
        <ele>80</ele>
        <time>2023-11-14T12:46:51Z</time>
      </trkpt>
      <trkpt lat="46.55951" lon="-0.7626">
        <ele>82</ele>
        <time>2023-11-14T12:49:31Z</time>
      </trkpt>
      <trkpt lat="46.56084" lon="-0.75865">
        <ele>89</ele>
        <time>2023-11-14T12:56:14Z</time>
      </trkpt>
      <trkpt lat="46.55883" lon="-0.75728">
        <ele>88</ele>
        <time>2023-11-14T13:01:10Z</time>
      </trkpt>
      <trkpt lat="46.55948" lon="-0.75505">
        <ele>88</ele>
        <time>2023-11-14T13:04:53Z</time>
      </trkpt>
      <trkpt lat="46.55685" lon="-0.75466">
        <ele>78</ele>
        <time>2023-11-14T13:10:45Z</time>
      </trkpt>
      <trkpt lat="46.55535" lon="-0.75312">
        <ele>80</ele>
        <time>2023-11-14T13:14:50Z</time>
      </trkpt>
      <trkpt lat="46.55278" lon="-0.75338">
        <ele>78</ele>
        <time>2023-11-14T13:20:34Z</time>
      </trkpt>
      <trkpt lat="46.55104" lon="-0.75217">
        <ele>77</ele>
        <time>2023-11-14T13:24:52Z</time>
      </trkpt>
      <trkpt lat="46.55178" lon="-0.74848">
        <ele>73</ele>
        <time>2023-11-14T13:30:44Z</time>
      </trkpt>
      <trkpt lat="46.55175" lon="-0.74732">
        <ele>68</ele>
        <time>2023-11-14T13:32:31Z</time>
      </trkpt>
      <trkpt lat="46.55372" lon="-0.74526">
        <ele>65</ele>
        <time>2023-11-14T13:37:55Z</time>
      </trkpt>
      <trkpt lat="46.55337" lon="-0.74462">
        <ele>62</ele>
        <time>2023-11-14T13:39:10Z</time>
      </trkpt>
      <trkpt lat="46.55443" lon="-0.74342">
        <ele>68</ele>
        <time>2023-11-14T13:42:09Z</time>
      </trkpt>
      <trkpt lat="46.55455" lon="-0.74248">
        <ele>69</ele>
        <time>2023-11-14T13:43:37Z</time>
      </trkpt>
      <trkpt lat="46.5557" lon="-0.74132">
        <ele>72</ele>
        <time>2023-11-14T13:46:44Z</time>
      </trkpt>
      <trkpt lat="46.55496" lon="-0.74029">
        <ele>69</ele>
        <time>2023-11-14T13:49:00Z</time>
      </trkpt>
      <trkpt lat="46.5552" lon="-0.7375">
        <ele>78</ele>
        <time>2023-11-14T13:53:18Z</time>
      </trkpt>
      <trkpt lat="46.55777" lon="-0.73308">
        <ele>87</ele>
        <time>2023-11-14T14:02:09Z</time>
      </trkpt>
      <trkpt lat="46.55936" lon="-0.73012">
        <ele>88</ele>
        <time>2023-11-14T14:07:54Z</time>
      </trkpt>
      <trkpt lat="46.5626" lon="-0.71814">
        <ele>106</ele>
        <time>2023-11-14T14:27:35Z</time>
      </trkpt>
      <trkpt lat="46.56246" lon="-0.71677">
        <ele>107</ele>
        <time>2023-11-14T14:29:42Z</time>
      </trkpt>
      <trkpt lat="46.56178" lon="-0.71544">
        <ele>108</ele>
        <time>2023-11-14T14:32:14Z</time>
      </trkpt>
      <trkpt lat="46.55213" lon="-0.71569">
        <ele>97</ele>
        <time>2023-11-14T14:53:42Z</time>
      </trkpt>
      <trkpt lat="46.55233" lon="-0.71501">
        <ele>100</ele>
        <time>2023-11-14T14:54:50Z</time>
      </trkpt>
      <trkpt lat="46.55127" lon="-0.71437">
        <ele>99</ele>
        <time>2023-11-14T14:57:23Z</time>
      </trkpt>
      <trkpt lat="46.55027" lon="-0.71402">
        <ele>95</ele>
        <time>2023-11-14T14:59:41Z</time>
      </trkpt>
      <trkpt lat="46.54924" lon="-0.71222">
        <ele>91</ele>
        <time>2023-11-14T15:03:16Z</time>
      </trkpt>
      <trkpt lat="46.54779" lon="-0.70934">
        <ele>88</ele>
        <time>2023-11-14T15:08:43Z</time>
      </trkpt>
      <trkpt lat="46.54617" lon="-0.70969">
        <ele>91</ele>
        <time>2023-11-14T15:12:22Z</time>
      </trkpt>
      <trkpt lat="46.54558" lon="-0.71046">
        <ele>90</ele>
        <time>2023-11-14T15:14:07Z</time>
      </trkpt>
      <trkpt lat="46.54478" lon="-0.70883">
        <ele>92</ele>
        <time>2023-11-14T15:17:11Z</time>
      </trkpt>
      <trkpt lat="46.54422" lon="-0.70922">
        <ele>91</ele>
        <time>2023-11-14T15:18:34Z</time>
      </trkpt>
      <trkpt lat="46.54319" lon="-0.70759">
        <ele>89</ele>
        <time>2023-11-14T15:21:57Z</time>
      </trkpt>
      <trkpt lat="46.54268" lon="-0.7054">
        <ele>92</ele>
        <time>2023-11-14T15:25:30Z</time>
      </trkpt>
      <trkpt lat="46.54428" lon="-0.70475">
        <ele>94</ele>
        <time>2023-11-14T15:29:11Z</time>
      </trkpt>
      <trkpt lat="46.54372" lon="-0.70183">
        <ele>89</ele>
        <time>2023-11-14T15:33:49Z</time>
      </trkpt>
      <trkpt lat="46.5454" lon="-0.70102">
        <ele>90</ele>
        <time>2023-11-14T15:37:46Z</time>
      </trkpt>
      <trkpt lat="46.54664" lon="-0.70115">
        <ele>94</ele>
        <time>2023-11-14T15:40:32Z</time>
      </trkpt>
      <trkpt lat="46.54847" lon="-0.70424">
        <ele>100</ele>
        <time>2023-11-14T15:46:46Z</time>
      </trkpt>
      <trkpt lat="46.54953" lon="-0.70471">
        <ele>100</ele>
        <time>2023-11-14T15:49:14Z</time>
      </trkpt>
      <trkpt lat="46.54944" lon="-0.70535">
        <ele>99</ele>
        <time>2023-11-14T15:50:14Z</time>
      </trkpt>
      <trkpt lat="46.55136" lon="-0.70698">
        <ele>92</ele>
        <time>2023-11-14T15:55:10Z</time>
      </trkpt>
      <trkpt lat="46.55178" lon="-0.7069">
        <ele>92</ele>
        <time>2023-11-14T15:56:07Z</time>
      </trkpt>
      <trkpt lat="46.55251" lon="-0.70741">
        <ele>94</ele>
        <time>2023-11-14T15:57:55Z</time>
      </trkpt>
      <trkpt lat="46.55493" lon="-0.7051">
        <ele>104</ele>
        <time>2023-11-14T16:04:21Z</time>
      </trkpt>
      <trkpt lat="46.55591" lon="-0.70119">
        <ele>106</ele>
        <time>2023-11-14T16:10:43Z</time>
      </trkpt>
      <trkpt lat="46.55638" lon="-0.69617">
        <ele>108</ele>
        <time>2023-11-14T16:18:28Z</time>
      </trkpt>
      <trkpt lat="46.55703" lon="-0.69497">
        <ele>108</ele>
        <time>2023-11-14T16:20:48Z</time>
      </trkpt>
      <trkpt lat="46.55771" lon="-0.70535">
        <ele>111</ele>
        <time>2023-11-14T16:36:45Z</time>
      </trkpt>
      <trkpt lat="46.55877" lon="-0.70471">
        <ele>116</ele>
        <time>2023-11-14T16:39:18Z</time>
      </trkpt>
      <trkpt lat="46.56485" lon="-0.70415">
        <ele>105</ele>
        <time>2023-11-14T16:52:51Z</time>
      </trkpt>
      <trkpt lat="46.56411" lon="-0.69256">
        <ele>118</ele>
        <time>2023-11-14T17:10:39Z</time>
      </trkpt>
      <trkpt lat="46.5665" lon="-0.69244">
        <ele>125</ele>
        <time>2023-11-14T17:15:58Z</time>
      </trkpt>
      <trkpt lat="46.56674" lon="-0.69613">
        <ele>120</ele>
        <time>2023-11-14T17:21:38Z</time>
      </trkpt>
      <trkpt lat="46.5683" lon="-0.70299">
        <ele>118</ele>
        <time>2023-11-14T17:32:41Z</time>
      </trkpt>
      <trkpt lat="46.56833" lon="-0.70995">
        <ele>120</ele>
        <time>2023-11-14T17:43:20Z</time>
      </trkpt>
      <trkpt lat="46.56948" lon="-0.71514">
        <ele>118</ele>
        <time>2023-11-14T17:51:40Z</time>
      </trkpt>
      <trkpt lat="46.57107" lon="-0.72136">
        <ele>111</ele>
        <time>2023-11-14T18:01:49Z</time>
      </trkpt>
      <trkpt lat="46.57155" lon="-0.72823">
        <ele>99</ele>
        <time>2023-11-14T18:12:22Z</time>
      </trkpt>
      <trkpt lat="46.57217" lon="-0.72814">
        <ele>97</ele>
        <time>2023-11-14T18:13:45Z</time>
      </trkpt>
      <trkpt lat="46.57311" lon="-0.72673">
        <ele>89</ele>
        <time>2023-11-14T18:16:46Z</time>
      </trkpt>
      <trkpt lat="46.57435" lon="-0.73063">
        <ele>82</ele>
        <time>2023-11-14T18:23:20Z</time>
      </trkpt>
      <trkpt lat="46.57166" lon="-0.73239">
        <ele>94</ele>
        <time>2023-11-14T18:29:53Z</time>
      </trkpt>
      <trkpt lat="46.57246" lon="-0.7384">
        <ele>92</ele>
        <time>2023-11-14T18:39:15Z</time>
      </trkpt>
      <trkpt lat="46.57243" lon="-0.74213">
        <ele>94</ele>
        <time>2023-11-14T18:44:57Z</time>
      </trkpt>
      <trkpt lat="46.57337" lon="-0.74951">
        <ele>79</ele>
        <time>2023-11-14T18:56:26Z</time>
      </trkpt>
      <trkpt lat="46.57482" lon="-0.75758">
        <ele>83</ele>
        <time>2023-11-14T19:09:11Z</time>
      </trkpt>
      <trkpt lat="46.57175" lon="-0.76659">
        <ele>52</ele>
        <time>2023-11-14T19:24:33Z</time>
      </trkpt>
      <trkpt lat="46.5719" lon="-0.76861">
        <ele>66</ele>
        <time>2023-11-14T19:27:40Z</time>
      </trkpt>
      <trkpt lat="46.57166" lon="-0.77123">
        <ele>61</ele>
        <time>2023-11-14T19:31:42Z</time>
      </trkpt>
      <trkpt lat="46.5729" lon="-0.77063">
        <ele>69</ele>
        <time>2023-11-14T19:34:37Z</time>
      </trkpt>
    </trkseg>
  </trk>
  <trk>
    <name><![CDATA[Vouvant_Autour_19.2km-8985849]]></name>
    <extensions>
      <line xmlns="http://www.topografix.com/GPX/gpx_style/0/2">
        <color>00FF00</color>
        <width>4</width>
      </line>
    </extensions>
    <trkseg>
      <trkpt lat="46.5724" lon="-0.77087">
        <ele>68</ele>
        <time>2023-11-14T12:04:43Z</time>
      </trkpt>
      <trkpt lat="46.57264" lon="-0.77156">
        <ele>62</ele>
        <time>2023-11-14T12:05:54Z</time>
      </trkpt>
      <trkpt lat="46.57209" lon="-0.77163">
        <ele>58</ele>
        <time>2023-11-14T12:07:08Z</time>
      </trkpt>
      <trkpt lat="46.57131" lon="-0.7713">
        <ele>59</ele>
        <time>2023-11-14T12:08:56Z</time>
      </trkpt>
      <trkpt lat="46.571" lon="-0.77126">
        <ele>58</ele>
        <time>2023-11-14T12:09:38Z</time>
      </trkpt>
      <trkpt lat="46.57104" lon="-0.77198">
        <ele>55</ele>
        <time>2023-11-14T12:10:44Z</time>
      </trkpt>
      <trkpt lat="46.56979" lon="-0.77279">
        <ele>61</ele>
        <time>2023-11-14T12:13:46Z</time>
      </trkpt>
      <trkpt lat="46.56917" lon="-0.7748">
        <ele>72</ele>
        <time>2023-11-14T12:17:09Z</time>
      </trkpt>
      <trkpt lat="46.56721" lon="-0.77243">
        <ele>72</ele>
        <time>2023-11-14T12:22:49Z</time>
      </trkpt>
      <trkpt lat="46.56474" lon="-0.77249">
        <ele>67</ele>
        <time>2023-11-14T12:28:18Z</time>
      </trkpt>
      <trkpt lat="46.56295" lon="-0.77316">
        <ele>62</ele>
        <time>2023-11-14T12:32:25Z</time>
      </trkpt>
      <trkpt lat="46.56028" lon="-0.77164">
        <ele>67</ele>
        <time>2023-11-14T12:38:48Z</time>
      </trkpt>
      <trkpt lat="46.55581" lon="-0.77006">
        <ele>64</ele>
        <time>2023-11-14T12:49:01Z</time>
      </trkpt>
      <trkpt lat="46.55377" lon="-0.77231">
        <ele>74</ele>
        <time>2023-11-14T12:54:43Z</time>
      </trkpt>
      <trkpt lat="46.55122" lon="-0.77413">
        <ele>72</ele>
        <time>2023-11-14T13:01:02Z</time>
      </trkpt>
      <trkpt lat="46.5458" lon="-0.77249">
        <ele>89</ele>
        <time>2023-11-14T13:13:21Z</time>
      </trkpt>
      <trkpt lat="46.54651" lon="-0.77522">
        <ele>89</ele>
        <time>2023-11-14T13:17:49Z</time>
      </trkpt>
      <trkpt lat="46.546" lon="-0.77734">
        <ele>84</ele>
        <time>2023-11-14T13:21:15Z</time>
      </trkpt>
      <trkpt lat="46.54538" lon="-0.77935">
        <ele>78</ele>
        <time>2023-11-14T13:24:37Z</time>
      </trkpt>
      <trkpt lat="46.54592" lon="-0.78159">
        <ele>54</ele>
        <time>2023-11-14T13:28:15Z</time>
      </trkpt>
      <trkpt lat="46.54454" lon="-0.7819">
        <ele>54</ele>
        <time>2023-11-14T13:31:21Z</time>
      </trkpt>
      <trkpt lat="46.544" lon="-0.78135">
        <ele>51</ele>
        <time>2023-11-14T13:32:49Z</time>
      </trkpt>
      <trkpt lat="46.544" lon="-0.78008">
        <ele>53</ele>
        <time>2023-11-14T13:34:46Z</time>
      </trkpt>
      <trkpt lat="46.54438" lon="-0.77558">
        <ele>54</ele>
        <time>2023-11-14T13:41:42Z</time>
      </trkpt>
      <trkpt lat="46.5435" lon="-0.77449">
        <ele>57</ele>
        <time>2023-11-14T13:44:16Z</time>
      </trkpt>
      <trkpt lat="46.54271" lon="-0.77358">
        <ele>78</ele>
        <time>2023-11-14T13:46:31Z</time>
      </trkpt>
      <trkpt lat="46.54225" lon="-0.77237">
        <ele>100</ele>
        <time>2023-11-14T13:48:38Z</time>
      </trkpt>
      <trkpt lat="46.54592" lon="-0.77194">
        <ele>84</ele>
        <time>2023-11-14T13:56:49Z</time>
      </trkpt>
      <trkpt lat="46.54688" lon="-0.76496">
        <ele>81</ele>
        <time>2023-11-14T14:07:42Z</time>
      </trkpt>
      <trkpt lat="46.54797" lon="-0.76521">
        <ele>79</ele>
        <time>2023-11-14T14:10:10Z</time>
      </trkpt>
      <trkpt lat="46.54876" lon="-0.76199">
        <ele>85</ele>
        <time>2023-11-14T14:15:23Z</time>
      </trkpt>
      <trkpt lat="46.5503" lon="-0.75902">
        <ele>73</ele>
        <time>2023-11-14T14:21:05Z</time>
      </trkpt>
      <trkpt lat="46.55118" lon="-0.75823">
        <ele>73</ele>
        <time>2023-11-14T14:23:23Z</time>
      </trkpt>
      <trkpt lat="46.55097" lon="-0.75695">
        <ele>72</ele>
        <time>2023-11-14T14:25:24Z</time>
      </trkpt>
      <trkpt lat="46.55214" lon="-0.75513">
        <ele>77</ele>
        <time>2023-11-14T14:29:12Z</time>
      </trkpt>
      <trkpt lat="46.55377" lon="-0.75495">
        <ele>77</ele>
        <time>2023-11-14T14:32:50Z</time>
      </trkpt>
      <trkpt lat="46.55423" lon="-0.75307">
        <ele>79</ele>
        <time>2023-11-14T14:35:53Z</time>
      </trkpt>
      <trkpt lat="46.55231" lon="-0.75313">
        <ele>77</ele>
        <time>2023-11-14T14:40:10Z</time>
      </trkpt>
      <trkpt lat="46.55101" lon="-0.75204">
        <ele>78</ele>
        <time>2023-11-14T14:43:30Z</time>
      </trkpt>
      <trkpt lat="46.5516" lon="-0.74694">
        <ele>65</ele>
        <time>2023-11-14T14:51:25Z</time>
      </trkpt>
      <trkpt lat="46.55377" lon="-0.74524">
        <ele>65</ele>
        <time>2023-11-14T14:56:53Z</time>
      </trkpt>
      <trkpt lat="46.55331" lon="-0.74463">
        <ele>62</ele>
        <time>2023-11-14T14:58:17Z</time>
      </trkpt>
      <trkpt lat="46.55439" lon="-0.74324">
        <ele>68</ele>
        <time>2023-11-14T15:01:29Z</time>
      </trkpt>
      <trkpt lat="46.55427" lon="-0.74226">
        <ele>66</ele>
        <time>2023-11-14T15:03:00Z</time>
      </trkpt>
      <trkpt lat="46.55581" lon="-0.74123">
        <ele>72</ele>
        <time>2023-11-14T15:06:47Z</time>
      </trkpt>
      <trkpt lat="46.55506" lon="-0.74008">
        <ele>71</ele>
        <time>2023-11-14T15:09:12Z</time>
      </trkpt>
      <trkpt lat="46.55519" lon="-0.73753">
        <ele>78</ele>
        <time>2023-11-14T15:13:07Z</time>
      </trkpt>
      <trkpt lat="46.55773" lon="-0.73334">
        <ele>87</ele>
        <time>2023-11-14T15:21:39Z</time>
      </trkpt>
      <trkpt lat="46.55944" lon="-0.73013">
        <ele>89</ele>
        <time>2023-11-14T15:27:52Z</time>
      </trkpt>
      <trkpt lat="46.56166" lon="-0.73274">
        <ele>80</ele>
        <time>2023-11-14T15:34:13Z</time>
      </trkpt>
      <trkpt lat="46.56579" lon="-0.73037">
        <ele>97</ele>
        <time>2023-11-14T15:44:05Z</time>
      </trkpt>
      <trkpt lat="46.56733" lon="-0.73025">
        <ele>96</ele>
        <time>2023-11-14T15:47:31Z</time>
      </trkpt>
      <trkpt lat="46.56996" lon="-0.72891">
        <ele>102</ele>
        <time>2023-11-14T15:53:43Z</time>
      </trkpt>
      <trkpt lat="46.57159" lon="-0.728">
        <ele>99</ele>
        <time>2023-11-14T15:57:36Z</time>
      </trkpt>
      <trkpt lat="46.57313" lon="-0.72685">
        <ele>89</ele>
        <time>2023-11-14T16:01:27Z</time>
      </trkpt>
      <trkpt lat="46.57434" lon="-0.73067">
        <ele>82</ele>
        <time>2023-11-14T16:07:53Z</time>
      </trkpt>
      <trkpt lat="46.57171" lon="-0.73255">
        <ele>94</ele>
        <time>2023-11-14T16:14:24Z</time>
      </trkpt>
      <trkpt lat="46.5725" lon="-0.73844">
        <ele>92</ele>
        <time>2023-11-14T16:23:34Z</time>
      </trkpt>
      <trkpt lat="46.57321" lon="-0.747">
        <ele>85</ele>
        <time>2023-11-14T16:36:45Z</time>
      </trkpt>
      <trkpt lat="46.5738" lon="-0.75082">
        <ele>79</ele>
        <time>2023-11-14T16:42:44Z</time>
      </trkpt>
      <trkpt lat="46.57484" lon="-0.75762">
        <ele>83</ele>
        <time>2023-11-14T16:53:23Z</time>
      </trkpt>
      <trkpt lat="46.57313" lon="-0.76193">
        <ele>78</ele>
        <time>2023-11-14T17:01:00Z</time>
      </trkpt>
      <trkpt lat="46.57217" lon="-0.76545">
        <ele>61</ele>
        <time>2023-11-14T17:06:47Z</time>
      </trkpt>
      <trkpt lat="46.57159" lon="-0.7683">
        <ele>63</ele>
        <time>2023-11-14T17:11:20Z</time>
      </trkpt>
      <trkpt lat="46.57238" lon="-0.76982">
        <ele>71</ele>
        <time>2023-11-14T17:14:15Z</time>
      </trkpt>
      <trkpt lat="46.57367" lon="-0.77049">
        <ele>65</ele>
        <time>2023-11-14T17:17:18Z</time>
      </trkpt>
      <trkpt lat="46.57451" lon="-0.77237">
        <ele>60</ele>
        <time>2023-11-14T17:20:43Z</time>
      </trkpt>
      <trkpt lat="46.57705" lon="-0.77413">
        <ele>60</ele>
        <time>2023-11-14T17:26:59Z</time>
      </trkpt>
      <trkpt lat="46.57797" lon="-0.77759">
        <ele>69</ele>
        <time>2023-11-14T17:32:39Z</time>
      </trkpt>
      <trkpt lat="46.57809" lon="-0.77947">
        <ele>77</ele>
        <time>2023-11-14T17:35:32Z</time>
      </trkpt>
      <trkpt lat="46.58006" lon="-0.78171">
        <ele>81</ele>
        <time>2023-11-14T17:41:06Z</time>
      </trkpt>
      <trkpt lat="46.58185" lon="-0.78287">
        <ele>83</ele>
        <time>2023-11-14T17:45:27Z</time>
      </trkpt>
      <trkpt lat="46.58247" lon="-0.78038">
        <ele>85</ele>
        <time>2023-11-14T17:49:30Z</time>
      </trkpt>
      <trkpt lat="46.5826" lon="-0.77832">
        <ele>80</ele>
        <time>2023-11-14T17:52:40Z</time>
      </trkpt>
      <trkpt lat="46.58306" lon="-0.77704">
        <ele>73</ele>
        <time>2023-11-14T17:54:52Z</time>
      </trkpt>
      <trkpt lat="46.58368" lon="-0.77631">
        <ele>65</ele>
        <time>2023-11-14T17:56:39Z</time>
      </trkpt>
      <trkpt lat="46.58318" lon="-0.77297">
        <ele>54</ele>
        <time>2023-11-14T18:01:52Z</time>
      </trkpt>
      <trkpt lat="46.58189" lon="-0.77304">
        <ele>55</ele>
        <time>2023-11-14T18:04:45Z</time>
      </trkpt>
      <trkpt lat="46.58051" lon="-0.77249">
        <ele>53</ele>
        <time>2023-11-14T18:07:56Z</time>
      </trkpt>
      <trkpt lat="46.57972" lon="-0.77376">
        <ele>58</ele>
        <time>2023-11-14T18:10:33Z</time>
      </trkpt>
      <trkpt lat="46.57851" lon="-0.77352">
        <ele>57</ele>
        <time>2023-11-14T18:13:16Z</time>
      </trkpt>
      <trkpt lat="46.5771" lon="-0.77433">
        <ele>61</ele>
        <time>2023-11-14T18:16:38Z</time>
      </trkpt>
      <trkpt lat="46.57594" lon="-0.77352">
        <ele>62</ele>
        <time>2023-11-14T18:19:30Z</time>
      </trkpt>
      <trkpt lat="46.5741" lon="-0.77195">
        <ele>60</ele>
        <time>2023-11-14T18:24:14Z</time>
      </trkpt>
      <trkpt lat="46.57358" lon="-0.77073">
        <ele>65</ele>
        <time>2023-11-14T18:26:26Z</time>
      </trkpt>
      <trkpt lat="46.57241" lon="-0.77076">
        <ele>69</ele>
        <time>2023-11-14T18:29:02Z</time>
      </trkpt>
    </trkseg>
  </trk>
  <trk>
    <name><![CDATA[VouvantMervent_18.8km-8987074]]></name>
    <extensions>
      <line xmlns="http://www.topografix.com/GPX/gpx_style/0/2">
        <color>FF0000</color>
        <width>4</width>
      </line>
    </extensions>
    <trkseg>
      <trkpt lat="46.57253" lon="-0.77086">
        <ele>69</ele>
        <time>2023-11-14T12:04:33Z</time>
      </trkpt>
      <trkpt lat="46.57307" lon="-0.77064">
        <ele>69</ele>
        <time>2023-11-14T12:05:48Z</time>
      </trkpt>
      <trkpt lat="46.57363" lon="-0.77083">
        <ele>64</ele>
        <time>2023-11-14T12:07:05Z</time>
      </trkpt>
      <trkpt lat="46.57391" lon="-0.77167">
        <ele>60</ele>
        <time>2023-11-14T12:08:30Z</time>
      </trkpt>
      <trkpt lat="46.57336" lon="-0.77213">
        <ele>62</ele>
        <time>2023-11-14T12:09:55Z</time>
      </trkpt>
      <trkpt lat="46.57265" lon="-0.77155">
        <ele>62</ele>
        <time>2023-11-14T12:11:44Z</time>
      </trkpt>
      <trkpt lat="46.57235" lon="-0.77151">
        <ele>61</ele>
        <time>2023-11-14T12:12:24Z</time>
      </trkpt>
      <trkpt lat="46.57207" lon="-0.77168">
        <ele>58</ele>
        <time>2023-11-14T12:13:04Z</time>
      </trkpt>
      <trkpt lat="46.5714" lon="-0.77136">
        <ele>59</ele>
        <time>2023-11-14T12:14:38Z</time>
      </trkpt>
      <trkpt lat="46.57125" lon="-0.77124">
        <ele>59</ele>
        <time>2023-11-14T12:15:01Z</time>
      </trkpt>
      <trkpt lat="46.571" lon="-0.7713">
        <ele>57</ele>
        <time>2023-11-14T12:15:35Z</time>
      </trkpt>
      <trkpt lat="46.57047" lon="-0.77125">
        <ele>56</ele>
        <time>2023-11-14T12:16:46Z</time>
      </trkpt>
      <trkpt lat="46.56983" lon="-0.77079">
        <ele>54</ele>
        <time>2023-11-14T12:18:21Z</time>
      </trkpt>
      <trkpt lat="46.56968" lon="-0.76965">
        <ele>55</ele>
        <time>2023-11-14T12:20:08Z</time>
      </trkpt>
      <trkpt lat="46.57039" lon="-0.76723">
        <ele>57</ele>
        <time>2023-11-14T12:24:09Z</time>
      </trkpt>
      <trkpt lat="46.57104" lon="-0.7666">
        <ele>53</ele>
        <time>2023-11-14T12:25:53Z</time>
      </trkpt>
      <trkpt lat="46.57145" lon="-0.76688">
        <ele>53</ele>
        <time>2023-11-14T12:26:54Z</time>
      </trkpt>
      <trkpt lat="46.57174" lon="-0.76627">
        <ele>54</ele>
        <time>2023-11-14T12:28:02Z</time>
      </trkpt>
      <trkpt lat="46.5704" lon="-0.76493">
        <ele>75</ele>
        <time>2023-11-14T12:31:39Z</time>
      </trkpt>
      <trkpt lat="46.56941" lon="-0.76577">
        <ele>76</ele>
        <time>2023-11-14T12:34:12Z</time>
      </trkpt>
      <trkpt lat="46.56789" lon="-0.76686">
        <ele>80</ele>
        <time>2023-11-14T12:37:58Z</time>
      </trkpt>
      <trkpt lat="46.5666" lon="-0.76675">
        <ele>77</ele>
        <time>2023-11-14T12:40:50Z</time>
      </trkpt>
      <trkpt lat="46.56598" lon="-0.76746">
        <ele>76</ele>
        <time>2023-11-14T12:42:36Z</time>
      </trkpt>
      <trkpt lat="46.56468" lon="-0.76794">
        <ele>76</ele>
        <time>2023-11-14T12:45:35Z</time>
      </trkpt>
      <trkpt lat="46.56285" lon="-0.76683">
        <ele>79</ele>
        <time>2023-11-14T12:49:59Z</time>
      </trkpt>
      <trkpt lat="46.56111" lon="-0.76592">
        <ele>77</ele>
        <time>2023-11-14T12:54:06Z</time>
      </trkpt>
      <trkpt lat="46.55958" lon="-0.76635">
        <ele>77</ele>
        <time>2023-11-14T12:57:34Z</time>
      </trkpt>
      <trkpt lat="46.55987" lon="-0.76425">
        <ele>80</ele>
        <time>2023-11-14T13:00:50Z</time>
      </trkpt>
      <trkpt lat="46.55952" lon="-0.76253">
        <ele>82</ele>
        <time>2023-11-14T13:03:35Z</time>
      </trkpt>
      <trkpt lat="46.56028" lon="-0.76012">
        <ele>86</ele>
        <time>2023-11-14T13:07:38Z</time>
      </trkpt>
      <trkpt lat="46.56085" lon="-0.75863">
        <ele>89</ele>
        <time>2023-11-14T13:10:15Z</time>
      </trkpt>
      <trkpt lat="46.55896" lon="-0.75708">
        <ele>88</ele>
        <time>2023-11-14T13:15:04Z</time>
      </trkpt>
      <trkpt lat="46.55949" lon="-0.75515">
        <ele>88</ele>
        <time>2023-11-14T13:18:15Z</time>
      </trkpt>
      <trkpt lat="46.55698" lon="-0.75455">
        <ele>79</ele>
        <time>2023-11-14T13:23:54Z</time>
      </trkpt>
      <trkpt lat="46.55539" lon="-0.75296">
        <ele>81</ele>
        <time>2023-11-14T13:28:12Z</time>
      </trkpt>
      <trkpt lat="46.55285" lon="-0.75331">
        <ele>79</ele>
        <time>2023-11-14T13:33:52Z</time>
      </trkpt>
      <trkpt lat="46.55111" lon="-0.75232">
        <ele>77</ele>
        <time>2023-11-14T13:38:02Z</time>
      </trkpt>
      <trkpt lat="46.54688" lon="-0.7518">
        <ele>63</ele>
        <time>2023-11-14T13:47:28Z</time>
      </trkpt>
      <trkpt lat="46.544" lon="-0.75541">
        <ele>65</ele>
        <time>2023-11-14T13:55:56Z</time>
      </trkpt>
      <trkpt lat="46.54231" lon="-0.75613">
        <ele>65</ele>
        <time>2023-11-14T13:59:51Z</time>
      </trkpt>
      <trkpt lat="46.54052" lon="-0.75859">
        <ele>70</ele>
        <time>2023-11-14T14:05:19Z</time>
      </trkpt>
      <trkpt lat="46.53797" lon="-0.7591">
        <ele>59</ele>
        <time>2023-11-14T14:11:03Z</time>
      </trkpt>
      <trkpt lat="46.53639" lon="-0.76024">
        <ele>56</ele>
        <time>2023-11-14T14:14:58Z</time>
      </trkpt>
      <trkpt lat="46.53589" lon="-0.76109">
        <ele>49</ele>
        <time>2023-11-14T14:16:41Z</time>
      </trkpt>
      <trkpt lat="46.53496" lon="-0.76107">
        <ele>48</ele>
        <time>2023-11-14T14:18:45Z</time>
      </trkpt>
      <trkpt lat="46.53396" lon="-0.76061">
        <ele>49</ele>
        <time>2023-11-14T14:21:05Z</time>
      </trkpt>
      <trkpt lat="46.53247" lon="-0.76209">
        <ele>57</ele>
        <time>2023-11-14T14:25:06Z</time>
      </trkpt>
      <trkpt lat="46.53173" lon="-0.76241">
        <ele>67</ele>
        <time>2023-11-14T14:26:49Z</time>
      </trkpt>
      <trkpt lat="46.5309" lon="-0.76096">
        <ele>48</ele>
        <time>2023-11-14T14:29:42Z</time>
      </trkpt>
      <trkpt lat="46.52989" lon="-0.76129">
        <ele>51</ele>
        <time>2023-11-14T14:32:00Z</time>
      </trkpt>
      <trkpt lat="46.52907" lon="-0.7614">
        <ele>45</ele>
        <time>2023-11-14T14:33:50Z</time>
      </trkpt>
      <trkpt lat="46.52951" lon="-0.76244">
        <ele>55</ele>
        <time>2023-11-14T14:35:42Z</time>
      </trkpt>
      <trkpt lat="46.52948" lon="-0.76375">
        <ele>61</ele>
        <time>2023-11-14T14:37:42Z</time>
      </trkpt>
      <trkpt lat="46.52867" lon="-0.76553">
        <ele>58</ele>
        <time>2023-11-14T14:40:58Z</time>
      </trkpt>
      <trkpt lat="46.52722" lon="-0.76717">
        <ele>50</ele>
        <time>2023-11-14T14:45:04Z</time>
      </trkpt>
      <trkpt lat="46.52689" lon="-0.76769">
        <ele>48</ele>
        <time>2023-11-14T14:46:08Z</time>
      </trkpt>
      <trkpt lat="46.52696" lon="-0.76805">
        <ele>48</ele>
        <time>2023-11-14T14:46:43Z</time>
      </trkpt>
      <trkpt lat="46.52732" lon="-0.76812">
        <ele>51</ele>
        <time>2023-11-14T14:47:31Z</time>
      </trkpt>
      <trkpt lat="46.52794" lon="-0.76781">
        <ele>53</ele>
        <time>2023-11-14T14:48:59Z</time>
      </trkpt>
      <trkpt lat="46.52822" lon="-0.76721">
        <ele>58</ele>
        <time>2023-11-14T14:50:05Z</time>
      </trkpt>
      <trkpt lat="46.52931" lon="-0.76689">
        <ele>73</ele>
        <time>2023-11-14T14:52:34Z</time>
      </trkpt>
      <trkpt lat="46.52962" lon="-0.76595">
        <ele>84</ele>
        <time>2023-11-14T14:54:09Z</time>
      </trkpt>
      <trkpt lat="46.53002" lon="-0.7655">
        <ele>93</ele>
        <time>2023-11-14T14:55:17Z</time>
      </trkpt>
      <trkpt lat="46.5307" lon="-0.76629">
        <ele>89</ele>
        <time>2023-11-14T14:57:13Z</time>
      </trkpt>
      <trkpt lat="46.53168" lon="-0.76697">
        <ele>85</ele>
        <time>2023-11-14T14:59:38Z</time>
      </trkpt>
      <trkpt lat="46.53089" lon="-0.76898">
        <ele>69</ele>
        <time>2023-11-14T15:03:11Z</time>
      </trkpt>
      <trkpt lat="46.53014" lon="-0.76933">
        <ele>48</ele>
        <time>2023-11-14T15:04:56Z</time>
      </trkpt>
      <trkpt lat="46.5305" lon="-0.77194">
        <ele>51</ele>
        <time>2023-11-14T15:09:00Z</time>
      </trkpt>
      <trkpt lat="46.53273" lon="-0.77215">
        <ele>63</ele>
        <time>2023-11-14T15:13:58Z</time>
      </trkpt>
      <trkpt lat="46.53377" lon="-0.77353">
        <ele>51</ele>
        <time>2023-11-14T15:17:06Z</time>
      </trkpt>
      <trkpt lat="46.53316" lon="-0.77424">
        <ele>54</ele>
        <time>2023-11-14T15:18:50Z</time>
      </trkpt>
      <trkpt lat="46.53274" lon="-0.77541">
        <ele>63</ele>
        <time>2023-11-14T15:20:52Z</time>
      </trkpt>
      <trkpt lat="46.5325" lon="-0.77522">
        <ele>60</ele>
        <time>2023-11-14T15:21:28Z</time>
      </trkpt>
      <trkpt lat="46.53279" lon="-0.77392">
        <ele>55</ele>
        <time>2023-11-14T15:23:34Z</time>
      </trkpt>
      <trkpt lat="46.53259" lon="-0.77381">
        <ele>56</ele>
        <time>2023-11-14T15:24:02Z</time>
      </trkpt>
      <trkpt lat="46.53202" lon="-0.7746">
        <ele>69</ele>
        <time>2023-11-14T15:25:47Z</time>
      </trkpt>
      <trkpt lat="46.53151" lon="-0.77475">
        <ele>77</ele>
        <time>2023-11-14T15:26:57Z</time>
      </trkpt>
      <trkpt lat="46.53107" lon="-0.77536">
        <ele>84</ele>
        <time>2023-11-14T15:28:18Z</time>
      </trkpt>
      <trkpt lat="46.52954" lon="-0.77763">
        <ele>95</ele>
        <time>2023-11-14T15:33:10Z</time>
      </trkpt>
      <trkpt lat="46.52972" lon="-0.77886">
        <ele>89</ele>
        <time>2023-11-14T15:35:05Z</time>
      </trkpt>
      <trkpt lat="46.52955" lon="-0.78063">
        <ele>88</ele>
        <time>2023-11-14T15:37:49Z</time>
      </trkpt>
      <trkpt lat="46.52968" lon="-0.78099">
        <ele>88</ele>
        <time>2023-11-14T15:38:26Z</time>
      </trkpt>
      <trkpt lat="46.5302" lon="-0.78225">
        <ele>92</ele>
        <time>2023-11-14T15:40:41Z</time>
      </trkpt>
      <trkpt lat="46.53063" lon="-0.78395">
        <ele>91</ele>
        <time>2023-11-14T15:43:28Z</time>
      </trkpt>
      <trkpt lat="46.53148" lon="-0.78523">
        <ele>95</ele>
        <time>2023-11-14T15:46:11Z</time>
      </trkpt>
      <trkpt lat="46.53074" lon="-0.78566">
        <ele>97</ele>
        <time>2023-11-14T15:47:57Z</time>
      </trkpt>
      <trkpt lat="46.53042" lon="-0.78549">
        <ele>97</ele>
        <time>2023-11-14T15:48:43Z</time>
      </trkpt>
      <trkpt lat="46.52939" lon="-0.78583">
        <ele>102</ele>
        <time>2023-11-14T15:51:04Z</time>
      </trkpt>
      <trkpt lat="46.53083" lon="-0.79153">
        <ele>115</ele>
        <time>2023-11-14T16:00:21Z</time>
      </trkpt>
      <trkpt lat="46.53313" lon="-0.79063">
        <ele>108</ele>
        <time>2023-11-14T16:05:39Z</time>
      </trkpt>
      <trkpt lat="46.53903" lon="-0.79106">
        <ele>113</ele>
        <time>2023-11-14T16:18:47Z</time>
      </trkpt>
      <trkpt lat="46.54281" lon="-0.78645">
        <ele>104</ele>
        <time>2023-11-14T16:29:46Z</time>
      </trkpt>
      <trkpt lat="46.54474" lon="-0.78637">
        <ele>83</ele>
        <time>2023-11-14T16:34:03Z</time>
      </trkpt>
      <trkpt lat="46.54569" lon="-0.78392">
        <ele>59</ele>
        <time>2023-11-14T16:38:21Z</time>
      </trkpt>
      <trkpt lat="46.54415" lon="-0.78349">
        <ele>65</ele>
        <time>2023-11-14T16:41:51Z</time>
      </trkpt>
      <trkpt lat="46.54286" lon="-0.78262">
        <ele>71</ele>
        <time>2023-11-14T16:45:01Z</time>
      </trkpt>
      <trkpt lat="46.54286" lon="-0.78096">
        <ele>64</ele>
        <time>2023-11-14T16:47:33Z</time>
      </trkpt>
      <trkpt lat="46.54425" lon="-0.78125">
        <ele>55</ele>
        <time>2023-11-14T16:50:40Z</time>
      </trkpt>
      <trkpt lat="46.54442" lon="-0.78202">
        <ele>53</ele>
        <time>2023-11-14T16:51:54Z</time>
      </trkpt>
      <trkpt lat="46.54515" lon="-0.78218">
        <ele>54</ele>
        <time>2023-11-14T16:53:33Z</time>
      </trkpt>
      <trkpt lat="46.54612" lon="-0.78159">
        <ele>53</ele>
        <time>2023-11-14T16:55:53Z</time>
      </trkpt>
      <trkpt lat="46.54544" lon="-0.77916">
        <ele>78</ele>
        <time>2023-11-14T16:59:54Z</time>
      </trkpt>
      <trkpt lat="46.54628" lon="-0.77738">
        <ele>85</ele>
        <time>2023-11-14T17:03:12Z</time>
      </trkpt>
      <trkpt lat="46.54657" lon="-0.77565">
        <ele>90</ele>
        <time>2023-11-14T17:05:56Z</time>
      </trkpt>
      <trkpt lat="46.54654" lon="-0.7751">
        <ele>90</ele>
        <time>2023-11-14T17:06:46Z</time>
      </trkpt>
      <trkpt lat="46.54631" lon="-0.77415">
        <ele>91</ele>
        <time>2023-11-14T17:08:19Z</time>
      </trkpt>
      <trkpt lat="46.54627" lon="-0.77342">
        <ele>91</ele>
        <time>2023-11-14T17:09:26Z</time>
      </trkpt>
      <trkpt lat="46.54598" lon="-0.77248">
        <ele>88</ele>
        <time>2023-11-14T17:11:01Z</time>
      </trkpt>
      <trkpt lat="46.55119" lon="-0.77421">
        <ele>72</ele>
        <time>2023-11-14T17:22:54Z</time>
      </trkpt>
      <trkpt lat="46.55291" lon="-0.77224">
        <ele>75</ele>
        <time>2023-11-14T17:27:46Z</time>
      </trkpt>
      <trkpt lat="46.55395" lon="-0.77218">
        <ele>73</ele>
        <time>2023-11-14T17:30:05Z</time>
      </trkpt>
      <trkpt lat="46.55506" lon="-0.77119">
        <ele>66</ele>
        <time>2023-11-14T17:32:58Z</time>
      </trkpt>
      <trkpt lat="46.55566" lon="-0.77013">
        <ele>65</ele>
        <time>2023-11-14T17:35:04Z</time>
      </trkpt>
      <trkpt lat="46.55581" lon="-0.77013">
        <ele>64</ele>
        <time>2023-11-14T17:35:25Z</time>
      </trkpt>
      <trkpt lat="46.55647" lon="-0.7702">
        <ele>65</ele>
        <time>2023-11-14T17:36:53Z</time>
      </trkpt>
      <trkpt lat="46.55765" lon="-0.77095">
        <ele>68</ele>
        <time>2023-11-14T17:39:45Z</time>
      </trkpt>
      <trkpt lat="46.55839" lon="-0.7711">
        <ele>69</ele>
        <time>2023-11-14T17:41:24Z</time>
      </trkpt>
      <trkpt lat="46.56043" lon="-0.77193">
        <ele>67</ele>
        <time>2023-11-14T17:46:07Z</time>
      </trkpt>
      <trkpt lat="46.56189" lon="-0.77289">
        <ele>65</ele>
        <time>2023-11-14T17:49:41Z</time>
      </trkpt>
      <trkpt lat="46.56335" lon="-0.77317">
        <ele>63</ele>
        <time>2023-11-14T17:52:57Z</time>
      </trkpt>
      <trkpt lat="46.56524" lon="-0.77252">
        <ele>69</ele>
        <time>2023-11-14T17:57:17Z</time>
      </trkpt>
      <trkpt lat="46.56632" lon="-0.77264">
        <ele>71</ele>
        <time>2023-11-14T17:59:41Z</time>
      </trkpt>
      <trkpt lat="46.56723" lon="-0.77244">
        <ele>72</ele>
        <time>2023-11-14T18:01:44Z</time>
      </trkpt>
      <trkpt lat="46.56792" lon="-0.77381">
        <ele>73</ele>
        <time>2023-11-14T18:04:20Z</time>
      </trkpt>
      <trkpt lat="46.56906" lon="-0.77468">
        <ele>72</ele>
        <time>2023-11-14T18:07:12Z</time>
      </trkpt>
      <trkpt lat="46.56966" lon="-0.77273">
        <ele>60</ele>
        <time>2023-11-14T18:10:28Z</time>
      </trkpt>
      <trkpt lat="46.57122" lon="-0.77218">
        <ele>56</ele>
        <time>2023-11-14T18:14:02Z</time>
      </trkpt>
      <trkpt lat="46.57107" lon="-0.77135">
        <ele>57</ele>
        <time>2023-11-14T18:15:20Z</time>
      </trkpt>
      <trkpt lat="46.57074" lon="-0.77086">
        <ele>59</ele>
        <time>2023-11-14T18:16:23Z</time>
      </trkpt>
      <trkpt lat="46.57069" lon="-0.77053">
        <ele>61</ele>
        <time>2023-11-14T18:16:54Z</time>
      </trkpt>
      <trkpt lat="46.57131" lon="-0.7706">
        <ele>65</ele>
        <time>2023-11-14T18:18:17Z</time>
      </trkpt>
      <trkpt lat="46.57166" lon="-0.77053">
        <ele>68</ele>
        <time>2023-11-14T18:19:05Z</time>
      </trkpt>
      <trkpt lat="46.57175" lon="-0.77028">
        <ele>70</ele>
        <time>2023-11-14T18:19:30Z</time>
      </trkpt>
      <trkpt lat="46.57249" lon="-0.77095">
        <ele>68</ele>
        <time>2023-11-14T18:21:27Z</time>
      </trkpt>
      <trkpt lat="46.5726" lon="-0.7707">
        <ele>69</ele>
        <time>2023-11-14T18:21:54Z</time>
      </trkpt>
    </trkseg>
  </trk>
  <trk>
    <name><![CDATA[Vouvant_BoucleVersMervent_19km-9131938]]></name>
    <extensions>
      <line xmlns="http://www.topografix.com/GPX/gpx_style/0/2">
        <color>00FFFF</color>
        <width>4</width>
      </line>
    </extensions>
    <trkseg>
      <trkpt lat="46.57287" lon="-0.77101">
        <ele>68</ele>
        <time>2023-11-14T12:04:25Z</time>
      </trkpt>
      <trkpt lat="46.57269" lon="-0.77085">
        <ele>69</ele>
        <time>2023-11-14T12:04:53Z</time>
      </trkpt>
      <trkpt lat="46.57255" lon="-0.77082">
        <ele>69</ele>
        <time>2023-11-14T12:05:12Z</time>
      </trkpt>
      <trkpt lat="46.5722" lon="-0.77068">
        <ele>69</ele>
        <time>2023-11-14T12:06:00Z</time>
      </trkpt>
      <trkpt lat="46.57203" lon="-0.77055">
        <ele>69</ele>
        <time>2023-11-14T12:06:26Z</time>
      </trkpt>
      <trkpt lat="46.5719" lon="-0.77037">
        <ele>70</ele>
        <time>2023-11-14T12:06:50Z</time>
      </trkpt>
      <trkpt lat="46.57172" lon="-0.7704">
        <ele>69</ele>
        <time>2023-11-14T12:07:14Z</time>
      </trkpt>
      <trkpt lat="46.57155" lon="-0.77055">
        <ele>67</ele>
        <time>2023-11-14T12:07:41Z</time>
      </trkpt>
      <trkpt lat="46.57136" lon="-0.7706">
        <ele>65</ele>
        <time>2023-11-14T12:08:07Z</time>
      </trkpt>
      <trkpt lat="46.57081" lon="-0.77056">
        <ele>61</ele>
        <time>2023-11-14T12:09:20Z</time>
      </trkpt>
      <trkpt lat="46.57069" lon="-0.77077">
        <ele>59</ele>
        <time>2023-11-14T12:09:45Z</time>
      </trkpt>
      <trkpt lat="46.57093" lon="-0.77118">
        <ele>58</ele>
        <time>2023-11-14T12:10:34Z</time>
      </trkpt>
      <trkpt lat="46.57077" lon="-0.77129">
        <ele>57</ele>
        <time>2023-11-14T12:10:58Z</time>
      </trkpt>
      <trkpt lat="46.57059" lon="-0.77132">
        <ele>56</ele>
        <time>2023-11-14T12:11:22Z</time>
      </trkpt>
      <trkpt lat="46.57025" lon="-0.77115">
        <ele>55</ele>
        <time>2023-11-14T12:12:10Z</time>
      </trkpt>
      <trkpt lat="46.5699" lon="-0.77093">
        <ele>54</ele>
        <time>2023-11-14T12:13:01Z</time>
      </trkpt>
      <trkpt lat="46.56975" lon="-0.77078">
        <ele>54</ele>
        <time>2023-11-14T12:13:25Z</time>
      </trkpt>
      <trkpt lat="46.56965" lon="-0.77055">
        <ele>54</ele>
        <time>2023-11-14T12:13:50Z</time>
      </trkpt>
      <trkpt lat="46.56964" lon="-0.77028">
        <ele>54</ele>
        <time>2023-11-14T12:14:15Z</time>
      </trkpt>
      <trkpt lat="46.56968" lon="-0.76973">
        <ele>55</ele>
        <time>2023-11-14T12:15:06Z</time>
      </trkpt>
      <trkpt lat="46.57025" lon="-0.76803">
        <ele>56</ele>
        <time>2023-11-14T12:17:59Z</time>
      </trkpt>
      <trkpt lat="46.57039" lon="-0.76723">
        <ele>57</ele>
        <time>2023-11-14T12:19:15Z</time>
      </trkpt>
      <trkpt lat="46.5705" lon="-0.76701">
        <ele>57</ele>
        <time>2023-11-14T12:19:40Z</time>
      </trkpt>
      <trkpt lat="46.57065" lon="-0.76683">
        <ele>55</ele>
        <time>2023-11-14T12:20:06Z</time>
      </trkpt>
      <trkpt lat="46.5708" lon="-0.76668">
        <ele>53</ele>
        <time>2023-11-14T12:20:30Z</time>
      </trkpt>
      <trkpt lat="46.57097" lon="-0.76656">
        <ele>54</ele>
        <time>2023-11-14T12:20:56Z</time>
      </trkpt>
      <trkpt lat="46.57116" lon="-0.7666">
        <ele>53</ele>
        <time>2023-11-14T12:21:21Z</time>
      </trkpt>
      <trkpt lat="46.57153" lon="-0.76675">
        <ele>52</ele>
        <time>2023-11-14T12:22:12Z</time>
      </trkpt>
      <trkpt lat="46.57175" lon="-0.76632">
        <ele>54</ele>
        <time>2023-11-14T12:23:02Z</time>
      </trkpt>
      <trkpt lat="46.57166" lon="-0.76608">
        <ele>55</ele>
        <time>2023-11-14T12:23:27Z</time>
      </trkpt>
      <trkpt lat="46.57152" lon="-0.76591">
        <ele>57</ele>
        <time>2023-11-14T12:23:51Z</time>
      </trkpt>
      <trkpt lat="46.57135" lon="-0.76581">
        <ele>58</ele>
        <time>2023-11-14T12:24:16Z</time>
      </trkpt>
      <trkpt lat="46.57103" lon="-0.76551">
        <ele>64</ele>
        <time>2023-11-14T12:25:06Z</time>
      </trkpt>
      <trkpt lat="46.57085" lon="-0.76541">
        <ele>66</ele>
        <time>2023-11-14T12:25:32Z</time>
      </trkpt>
      <trkpt lat="46.57041" lon="-0.76494">
        <ele>74</ele>
        <time>2023-11-14T12:26:45Z</time>
      </trkpt>
      <trkpt lat="46.5703" lon="-0.76516">
        <ele>73</ele>
        <time>2023-11-14T12:27:10Z</time>
      </trkpt>
      <trkpt lat="46.57012" lon="-0.76526">
        <ele>74</ele>
        <time>2023-11-14T12:27:36Z</time>
      </trkpt>
      <trkpt lat="46.56997" lon="-0.76544">
        <ele>75</ele>
        <time>2023-11-14T12:28:02Z</time>
      </trkpt>
      <trkpt lat="46.5693" lon="-0.76587">
        <ele>77</ele>
        <time>2023-11-14T12:29:39Z</time>
      </trkpt>
      <trkpt lat="46.56898" lon="-0.76616">
        <ele>77</ele>
        <time>2023-11-14T12:30:30Z</time>
      </trkpt>
      <trkpt lat="46.56799" lon="-0.76689">
        <ele>79</ele>
        <time>2023-11-14T12:32:58Z</time>
      </trkpt>
      <trkpt lat="46.56781" lon="-0.76694">
        <ele>79</ele>
        <time>2023-11-14T12:33:22Z</time>
      </trkpt>
      <trkpt lat="46.56765" lon="-0.76684">
        <ele>80</ele>
        <time>2023-11-14T12:33:45Z</time>
      </trkpt>
      <trkpt lat="46.56747" lon="-0.76679">
        <ele>80</ele>
        <time>2023-11-14T12:34:10Z</time>
      </trkpt>
      <trkpt lat="46.56709" lon="-0.76681">
        <ele>79</ele>
        <time>2023-11-14T12:35:01Z</time>
      </trkpt>
      <trkpt lat="46.56673" lon="-0.76672">
        <ele>77</ele>
        <time>2023-11-14T12:35:49Z</time>
      </trkpt>
      <trkpt lat="46.56654" lon="-0.76674">
        <ele>77</ele>
        <time>2023-11-14T12:36:15Z</time>
      </trkpt>
      <trkpt lat="46.56623" lon="-0.76705">
        <ele>77</ele>
        <time>2023-11-14T12:37:05Z</time>
      </trkpt>
      <trkpt lat="46.5661" lon="-0.76723">
        <ele>77</ele>
        <time>2023-11-14T12:37:29Z</time>
      </trkpt>
      <trkpt lat="46.56599" lon="-0.76745">
        <ele>76</ele>
        <time>2023-11-14T12:37:54Z</time>
      </trkpt>
      <trkpt lat="46.56581" lon="-0.76737">
        <ele>75</ele>
        <time>2023-11-14T12:38:19Z</time>
      </trkpt>
      <trkpt lat="46.56563" lon="-0.76738">
        <ele>76</ele>
        <time>2023-11-14T12:38:43Z</time>
      </trkpt>
      <trkpt lat="46.56527" lon="-0.76749">
        <ele>76</ele>
        <time>2023-11-14T12:39:32Z</time>
      </trkpt>
      <trkpt lat="46.56509" lon="-0.7676">
        <ele>76</ele>
        <time>2023-11-14T12:39:58Z</time>
      </trkpt>
      <trkpt lat="46.56493" lon="-0.76775">
        <ele>76</ele>
        <time>2023-11-14T12:40:24Z</time>
      </trkpt>
      <trkpt lat="46.5648" lon="-0.76796">
        <ele>76</ele>
        <time>2023-11-14T12:40:49Z</time>
      </trkpt>
      <trkpt lat="46.56461" lon="-0.76796">
        <ele>77</ele>
        <time>2023-11-14T12:41:15Z</time>
      </trkpt>
      <trkpt lat="46.56411" lon="-0.76761">
        <ele>79</ele>
        <time>2023-11-14T12:42:29Z</time>
      </trkpt>
      <trkpt lat="46.56358" lon="-0.76729">
        <ele>80</ele>
        <time>2023-11-14T12:43:45Z</time>
      </trkpt>
      <trkpt lat="46.56342" lon="-0.76717">
        <ele>80</ele>
        <time>2023-11-14T12:44:09Z</time>
      </trkpt>
      <trkpt lat="46.5622" lon="-0.76655">
        <ele>77</ele>
        <time>2023-11-14T12:47:02Z</time>
      </trkpt>
      <trkpt lat="46.56167" lon="-0.76631">
        <ele>76</ele>
        <time>2023-11-14T12:48:16Z</time>
      </trkpt>
      <trkpt lat="46.56111" lon="-0.76623">
        <ele>76</ele>
        <time>2023-11-14T12:49:31Z</time>
      </trkpt>
      <trkpt lat="46.56092" lon="-0.76625">
        <ele>76</ele>
        <time>2023-11-14T12:49:57Z</time>
      </trkpt>
      <trkpt lat="46.56055" lon="-0.76636">
        <ele>76</ele>
        <time>2023-11-14T12:50:47Z</time>
      </trkpt>
      <trkpt lat="46.56037" lon="-0.76639">
        <ele>77</ele>
        <time>2023-11-14T12:51:11Z</time>
      </trkpt>
      <trkpt lat="46.56019" lon="-0.76647">
        <ele>77</ele>
        <time>2023-11-14T12:51:36Z</time>
      </trkpt>
      <trkpt lat="46.55963" lon="-0.76658">
        <ele>77</ele>
        <time>2023-11-14T12:52:52Z</time>
      </trkpt>
      <trkpt lat="46.55952" lon="-0.76637">
        <ele>77</ele>
        <time>2023-11-14T12:53:16Z</time>
      </trkpt>
      <trkpt lat="46.55952" lon="-0.76556">
        <ele>78</ele>
        <time>2023-11-14T12:54:30Z</time>
      </trkpt>
      <trkpt lat="46.55964" lon="-0.76451">
        <ele>79</ele>
        <time>2023-11-14T12:56:08Z</time>
      </trkpt>
      <trkpt lat="46.55963" lon="-0.76423">
        <ele>80</ele>
        <time>2023-11-14T12:56:34Z</time>
      </trkpt>
      <trkpt lat="46.5596" lon="-0.76397">
        <ele>80</ele>
        <time>2023-11-14T12:56:58Z</time>
      </trkpt>
      <trkpt lat="46.55951" lon="-0.76373">
        <ele>80</ele>
        <time>2023-11-14T12:57:23Z</time>
      </trkpt>
      <trkpt lat="46.55939" lon="-0.76321">
        <ele>81</ele>
        <time>2023-11-14T12:58:13Z</time>
      </trkpt>
      <trkpt lat="46.55936" lon="-0.76294">
        <ele>81</ele>
        <time>2023-11-14T12:58:38Z</time>
      </trkpt>
      <trkpt lat="46.55938" lon="-0.76266">
        <ele>82</ele>
        <time>2023-11-14T12:59:04Z</time>
      </trkpt>
      <trkpt lat="46.55947" lon="-0.76215">
        <ele>83</ele>
        <time>2023-11-14T12:59:52Z</time>
      </trkpt>
      <trkpt lat="46.55963" lon="-0.76166">
        <ele>84</ele>
        <time>2023-11-14T13:00:42Z</time>
      </trkpt>
      <trkpt lat="46.5599" lon="-0.76096">
        <ele>85</ele>
        <time>2023-11-14T13:01:56Z</time>
      </trkpt>
      <trkpt lat="46.56002" lon="-0.76075">
        <ele>85</ele>
        <time>2023-11-14T13:02:21Z</time>
      </trkpt>
      <trkpt lat="46.56077" lon="-0.75856">
        <ele>89</ele>
        <time>2023-11-14T13:06:05Z</time>
      </trkpt>
      <trkpt lat="46.56074" lon="-0.7583">
        <ele>90</ele>
        <time>2023-11-14T13:06:30Z</time>
      </trkpt>
      <trkpt lat="46.56044" lon="-0.75798">
        <ele>89</ele>
        <time>2023-11-14T13:07:19Z</time>
      </trkpt>
      <trkpt lat="46.56009" lon="-0.75778">
        <ele>88</ele>
        <time>2023-11-14T13:08:09Z</time>
      </trkpt>
      <trkpt lat="46.55991" lon="-0.75774">
        <ele>88</ele>
        <time>2023-11-14T13:08:34Z</time>
      </trkpt>
      <trkpt lat="46.5596" lon="-0.75742">
        <ele>88</ele>
        <time>2023-11-14T13:09:24Z</time>
      </trkpt>
      <trkpt lat="46.55893" lon="-0.75697">
        <ele>88</ele>
        <time>2023-11-14T13:11:03Z</time>
      </trkpt>
      <trkpt lat="46.55891" lon="-0.75671">
        <ele>87</ele>
        <time>2023-11-14T13:11:27Z</time>
      </trkpt>
      <trkpt lat="46.55927" lon="-0.75577">
        <ele>87</ele>
        <time>2023-11-14T13:13:06Z</time>
      </trkpt>
      <trkpt lat="46.55937" lon="-0.75525">
        <ele>87</ele>
        <time>2023-11-14T13:13:55Z</time>
      </trkpt>
      <trkpt lat="46.55923" lon="-0.75507">
        <ele>87</ele>
        <time>2023-11-14T13:14:20Z</time>
      </trkpt>
      <trkpt lat="46.55906" lon="-0.75497">
        <ele>87</ele>
        <time>2023-11-14T13:14:45Z</time>
      </trkpt>
      <trkpt lat="46.55869" lon="-0.75487">
        <ele>85</ele>
        <time>2023-11-14T13:15:35Z</time>
      </trkpt>
      <trkpt lat="46.55793" lon="-0.75479">
        <ele>82</ele>
        <time>2023-11-14T13:17:16Z</time>
      </trkpt>
      <trkpt lat="46.55756" lon="-0.75482">
        <ele>81</ele>
        <time>2023-11-14T13:18:06Z</time>
      </trkpt>
      <trkpt lat="46.55738" lon="-0.75478">
        <ele>80</ele>
        <time>2023-11-14T13:18:30Z</time>
      </trkpt>
      <trkpt lat="46.55719" lon="-0.75477">
        <ele>80</ele>
        <time>2023-11-14T13:18:56Z</time>
      </trkpt>
      <trkpt lat="46.55684" lon="-0.75469">
        <ele>78</ele>
        <time>2023-11-14T13:19:43Z</time>
      </trkpt>
      <trkpt lat="46.55668" lon="-0.75456">
        <ele>78</ele>
        <time>2023-11-14T13:20:07Z</time>
      </trkpt>
      <trkpt lat="46.55609" lon="-0.75388">
        <ele>79</ele>
        <time>2023-11-14T13:21:48Z</time>
      </trkpt>
      <trkpt lat="46.55562" lon="-0.75344">
        <ele>79</ele>
        <time>2023-11-14T13:23:02Z</time>
      </trkpt>
      <trkpt lat="46.55545" lon="-0.75332">
        <ele>79</ele>
        <time>2023-11-14T13:23:28Z</time>
      </trkpt>
      <trkpt lat="46.55526" lon="-0.75328">
        <ele>79</ele>
        <time>2023-11-14T13:23:53Z</time>
      </trkpt>
      <trkpt lat="46.55508" lon="-0.75329">
        <ele>78</ele>
        <time>2023-11-14T13:24:17Z</time>
      </trkpt>
      <trkpt lat="46.55452" lon="-0.7532">
        <ele>79</ele>
        <time>2023-11-14T13:25:32Z</time>
      </trkpt>
      <trkpt lat="46.55415" lon="-0.75321">
        <ele>79</ele>
        <time>2023-11-14T13:26:22Z</time>
      </trkpt>
      <trkpt lat="46.55396" lon="-0.75318">
        <ele>79</ele>
        <time>2023-11-14T13:26:47Z</time>
      </trkpt>
      <trkpt lat="46.55377" lon="-0.7532">
        <ele>80</ele>
        <time>2023-11-14T13:27:13Z</time>
      </trkpt>
      <trkpt lat="46.55321" lon="-0.75314">
        <ele>80</ele>
        <time>2023-11-14T13:28:28Z</time>
      </trkpt>
      <trkpt lat="46.55284" lon="-0.75319">
        <ele>79</ele>
        <time>2023-11-14T13:29:17Z</time>
      </trkpt>
      <trkpt lat="46.55227" lon="-0.75317">
        <ele>76</ele>
        <time>2023-11-14T13:30:33Z</time>
      </trkpt>
      <trkpt lat="46.55175" lon="-0.75292">
        <ele>75</ele>
        <time>2023-11-14T13:31:46Z</time>
      </trkpt>
      <trkpt lat="46.55142" lon="-0.75267">
        <ele>75</ele>
        <time>2023-11-14T13:32:36Z</time>
      </trkpt>
      <trkpt lat="46.55125" lon="-0.75259">
        <ele>76</ele>
        <time>2023-11-14T13:33:00Z</time>
      </trkpt>
      <trkpt lat="46.55106" lon="-0.75255">
        <ele>76</ele>
        <time>2023-11-14T13:33:26Z</time>
      </trkpt>
      <trkpt lat="46.55092" lon="-0.75238">
        <ele>77</ele>
        <time>2023-11-14T13:33:50Z</time>
      </trkpt>
      <trkpt lat="46.55073" lon="-0.75236">
        <ele>76</ele>
        <time>2023-11-14T13:34:15Z</time>
      </trkpt>
      <trkpt lat="46.55037" lon="-0.75239">
        <ele>75</ele>
        <time>2023-11-14T13:35:03Z</time>
      </trkpt>
      <trkpt lat="46.55" lon="-0.7525">
        <ele>73</ele>
        <time>2023-11-14T13:35:54Z</time>
      </trkpt>
      <trkpt lat="46.54982" lon="-0.75253">
        <ele>73</ele>
        <time>2023-11-14T13:36:18Z</time>
      </trkpt>
      <trkpt lat="46.54928" lon="-0.75245">
        <ele>72</ele>
        <time>2023-11-14T13:37:30Z</time>
      </trkpt>
      <trkpt lat="46.54834" lon="-0.75256">
        <ele>67</ele>
        <time>2023-11-14T13:39:36Z</time>
      </trkpt>
      <trkpt lat="46.54797" lon="-0.75252">
        <ele>65</ele>
        <time>2023-11-14T13:40:26Z</time>
      </trkpt>
      <trkpt lat="46.54761" lon="-0.75242">
        <ele>63</ele>
        <time>2023-11-14T13:41:15Z</time>
      </trkpt>
      <trkpt lat="46.54729" lon="-0.75211">
        <ele>63</ele>
        <time>2023-11-14T13:42:06Z</time>
      </trkpt>
      <trkpt lat="46.54701" lon="-0.7514">
        <ele>63</ele>
        <time>2023-11-14T13:43:21Z</time>
      </trkpt>
      <trkpt lat="46.54686" lon="-0.75123">
        <ele>64</ele>
        <time>2023-11-14T13:43:47Z</time>
      </trkpt>
      <trkpt lat="46.54669" lon="-0.7511">
        <ele>64</ele>
        <time>2023-11-14T13:44:12Z</time>
      </trkpt>
      <trkpt lat="46.54653" lon="-0.75121">
        <ele>65</ele>
        <time>2023-11-14T13:44:36Z</time>
      </trkpt>
      <trkpt lat="46.54607" lon="-0.75166">
        <ele>66</ele>
        <time>2023-11-14T13:45:50Z</time>
      </trkpt>
      <trkpt lat="46.5455" lon="-0.75237">
        <ele>64</ele>
        <time>2023-11-14T13:47:30Z</time>
      </trkpt>
      <trkpt lat="46.54538" lon="-0.75257">
        <ele>64</ele>
        <time>2023-11-14T13:47:54Z</time>
      </trkpt>
      <trkpt lat="46.54522" lon="-0.75274">
        <ele>63</ele>
        <time>2023-11-14T13:48:21Z</time>
      </trkpt>
      <trkpt lat="46.54487" lon="-0.75283">
        <ele>64</ele>
        <time>2023-11-14T13:49:08Z</time>
      </trkpt>
      <trkpt lat="46.54471" lon="-0.75298">
        <ele>64</ele>
        <time>2023-11-14T13:49:34Z</time>
      </trkpt>
      <trkpt lat="46.54468" lon="-0.75434">
        <ele>64</ele>
        <time>2023-11-14T13:51:38Z</time>
      </trkpt>
      <trkpt lat="46.54451" lon="-0.75424">
        <ele>64</ele>
        <time>2023-11-14T13:52:03Z</time>
      </trkpt>
      <trkpt lat="46.54433" lon="-0.75433">
        <ele>65</ele>
        <time>2023-11-14T13:52:28Z</time>
      </trkpt>
      <trkpt lat="46.54425" lon="-0.75457">
        <ele>65</ele>
        <time>2023-11-14T13:52:53Z</time>
      </trkpt>
      <trkpt lat="46.54411" lon="-0.75473">
        <ele>65</ele>
        <time>2023-11-14T13:53:17Z</time>
      </trkpt>
      <trkpt lat="46.544" lon="-0.75495">
        <ele>65</ele>
        <time>2023-11-14T13:53:42Z</time>
      </trkpt>
      <trkpt lat="46.54383" lon="-0.75506">
        <ele>65</ele>
        <time>2023-11-14T13:54:06Z</time>
      </trkpt>
      <trkpt lat="46.54365" lon="-0.75513">
        <ele>64</ele>
        <time>2023-11-14T13:54:31Z</time>
      </trkpt>
      <trkpt lat="46.54348" lon="-0.75523">
        <ele>64</ele>
        <time>2023-11-14T13:54:56Z</time>
      </trkpt>
      <trkpt lat="46.54333" lon="-0.75538">
        <ele>64</ele>
        <time>2023-11-14T13:55:20Z</time>
      </trkpt>
      <trkpt lat="46.54316" lon="-0.7555">
        <ele>64</ele>
        <time>2023-11-14T13:55:45Z</time>
      </trkpt>
      <trkpt lat="46.54297" lon="-0.75552">
        <ele>65</ele>
        <time>2023-11-14T13:56:11Z</time>
      </trkpt>
      <trkpt lat="46.54279" lon="-0.75557">
        <ele>65</ele>
        <time>2023-11-14T13:56:35Z</time>
      </trkpt>
      <trkpt lat="46.54264" lon="-0.75574">
        <ele>64</ele>
        <time>2023-11-14T13:57:00Z</time>
      </trkpt>
      <trkpt lat="46.54228" lon="-0.75587">
        <ele>64</ele>
        <time>2023-11-14T13:57:50Z</time>
      </trkpt>
      <trkpt lat="46.54209" lon="-0.75584">
        <ele>65</ele>
        <time>2023-11-14T13:58:15Z</time>
      </trkpt>
      <trkpt lat="46.54192" lon="-0.75596">
        <ele>66</ele>
        <time>2023-11-14T13:58:41Z</time>
      </trkpt>
      <trkpt lat="46.54167" lon="-0.75637">
        <ele>65</ele>
        <time>2023-11-14T13:59:31Z</time>
      </trkpt>
      <trkpt lat="46.54149" lon="-0.75647">
        <ele>66</ele>
        <time>2023-11-14T13:59:57Z</time>
      </trkpt>
      <trkpt lat="46.54126" lon="-0.75691">
        <ele>66</ele>
        <time>2023-11-14T14:00:47Z</time>
      </trkpt>
      <trkpt lat="46.54112" lon="-0.7571">
        <ele>66</ele>
        <time>2023-11-14T14:01:13Z</time>
      </trkpt>
      <trkpt lat="46.54103" lon="-0.75735">
        <ele>65</ele>
        <time>2023-11-14T14:01:39Z</time>
      </trkpt>
      <trkpt lat="46.54086" lon="-0.75748">
        <ele>64</ele>
        <time>2023-11-14T14:02:05Z</time>
      </trkpt>
      <trkpt lat="46.54058" lon="-0.75785">
        <ele>66</ele>
        <time>2023-11-14T14:02:55Z</time>
      </trkpt>
      <trkpt lat="46.54047" lon="-0.75807">
        <ele>66</ele>
        <time>2023-11-14T14:03:20Z</time>
      </trkpt>
      <trkpt lat="46.54015" lon="-0.75834">
        <ele>65</ele>
        <time>2023-11-14T14:04:09Z</time>
      </trkpt>
      <trkpt lat="46.53997" lon="-0.75834">
        <ele>64</ele>
        <time>2023-11-14T14:04:33Z</time>
      </trkpt>
      <trkpt lat="46.5398" lon="-0.75821">
        <ele>64</ele>
        <time>2023-11-14T14:04:59Z</time>
      </trkpt>
      <trkpt lat="46.53963" lon="-0.75831">
        <ele>63</ele>
        <time>2023-11-14T14:05:23Z</time>
      </trkpt>
      <trkpt lat="46.53944" lon="-0.75833">
        <ele>62</ele>
        <time>2023-11-14T14:05:49Z</time>
      </trkpt>
      <trkpt lat="46.53927" lon="-0.75846">
        <ele>62</ele>
        <time>2023-11-14T14:06:15Z</time>
      </trkpt>
      <trkpt lat="46.53909" lon="-0.7585">
        <ele>62</ele>
        <time>2023-11-14T14:06:39Z</time>
      </trkpt>
      <trkpt lat="46.53892" lon="-0.75858">
        <ele>62</ele>
        <time>2023-11-14T14:07:03Z</time>
      </trkpt>
      <trkpt lat="46.53861" lon="-0.75888">
        <ele>62</ele>
        <time>2023-11-14T14:07:52Z</time>
      </trkpt>
      <trkpt lat="46.53843" lon="-0.75898">
        <ele>61</ele>
        <time>2023-11-14T14:08:18Z</time>
      </trkpt>
      <trkpt lat="46.53808" lon="-0.75911">
        <ele>59</ele>
        <time>2023-11-14T14:09:06Z</time>
      </trkpt>
      <trkpt lat="46.5379" lon="-0.75904">
        <ele>59</ele>
        <time>2023-11-14T14:09:31Z</time>
      </trkpt>
      <trkpt lat="46.53738" lon="-0.75933">
        <ele>58</ele>
        <time>2023-11-14T14:10:45Z</time>
      </trkpt>
      <trkpt lat="46.53725" lon="-0.75952">
        <ele>59</ele>
        <time>2023-11-14T14:11:10Z</time>
      </trkpt>
      <trkpt lat="46.53708" lon="-0.75963">
        <ele>59</ele>
        <time>2023-11-14T14:11:35Z</time>
      </trkpt>
      <trkpt lat="46.53672" lon="-0.75976">
        <ele>58</ele>
        <time>2023-11-14T14:12:24Z</time>
      </trkpt>
      <trkpt lat="46.53657" lon="-0.75993">
        <ele>57</ele>
        <time>2023-11-14T14:12:50Z</time>
      </trkpt>
      <trkpt lat="46.53633" lon="-0.76034">
        <ele>55</ele>
        <time>2023-11-14T14:13:39Z</time>
      </trkpt>
      <trkpt lat="46.53579" lon="-0.76106">
        <ele>48</ele>
        <time>2023-11-14T14:15:17Z</time>
      </trkpt>
      <trkpt lat="46.5356" lon="-0.76109">
        <ele>48</ele>
        <time>2023-11-14T14:15:43Z</time>
      </trkpt>
      <trkpt lat="46.53546" lon="-0.76127">
        <ele>49</ele>
        <time>2023-11-14T14:16:07Z</time>
      </trkpt>
      <trkpt lat="46.5353" lon="-0.76139">
        <ele>51</ele>
        <time>2023-11-14T14:16:31Z</time>
      </trkpt>
      <trkpt lat="46.53512" lon="-0.76144">
        <ele>52</ele>
        <time>2023-11-14T14:16:56Z</time>
      </trkpt>
      <trkpt lat="46.53477" lon="-0.76129">
        <ele>53</ele>
        <time>2023-11-14T14:17:45Z</time>
      </trkpt>
      <trkpt lat="46.53433" lon="-0.76079">
        <ele>49</ele>
        <time>2023-11-14T14:18:59Z</time>
      </trkpt>
      <trkpt lat="46.53399" lon="-0.76055">
        <ele>49</ele>
        <time>2023-11-14T14:19:50Z</time>
      </trkpt>
      <trkpt lat="46.5338" lon="-0.76052">
        <ele>50</ele>
        <time>2023-11-14T14:20:15Z</time>
      </trkpt>
      <trkpt lat="46.53362" lon="-0.7606">
        <ele>50</ele>
        <time>2023-11-14T14:20:40Z</time>
      </trkpt>
      <trkpt lat="46.53318" lon="-0.7611">
        <ele>53</ele>
        <time>2023-11-14T14:21:55Z</time>
      </trkpt>
      <trkpt lat="46.53284" lon="-0.76132">
        <ele>52</ele>
        <time>2023-11-14T14:22:44Z</time>
      </trkpt>
      <trkpt lat="46.53269" lon="-0.76149">
        <ele>51</ele>
        <time>2023-11-14T14:23:10Z</time>
      </trkpt>
      <trkpt lat="46.53258" lon="-0.76171">
        <ele>51</ele>
        <time>2023-11-14T14:23:35Z</time>
      </trkpt>
      <trkpt lat="46.53244" lon="-0.76189">
        <ele>53</ele>
        <time>2023-11-14T14:24:00Z</time>
      </trkpt>
      <trkpt lat="46.53209" lon="-0.76208">
        <ele>58</ele>
        <time>2023-11-14T14:24:50Z</time>
      </trkpt>
      <trkpt lat="46.53191" lon="-0.76208">
        <ele>59</ele>
        <time>2023-11-14T14:25:14Z</time>
      </trkpt>
      <trkpt lat="46.5317" lon="-0.76203">
        <ele>59</ele>
        <time>2023-11-14T14:25:42Z</time>
      </trkpt>
      <trkpt lat="46.53153" lon="-0.76193">
        <ele>59</ele>
        <time>2023-11-14T14:26:06Z</time>
      </trkpt>
      <trkpt lat="46.53142" lon="-0.76171">
        <ele>56</ele>
        <time>2023-11-14T14:26:31Z</time>
      </trkpt>
      <trkpt lat="46.53137" lon="-0.76145">
        <ele>53</ele>
        <time>2023-11-14T14:26:56Z</time>
      </trkpt>
      <trkpt lat="46.53119" lon="-0.76097">
        <ele>48</ele>
        <time>2023-11-14T14:27:46Z</time>
      </trkpt>
      <trkpt lat="46.53102" lon="-0.76086">
        <ele>46</ele>
        <time>2023-11-14T14:28:11Z</time>
      </trkpt>
      <trkpt lat="46.53046" lon="-0.76084">
        <ele>45</ele>
        <time>2023-11-14T14:29:26Z</time>
      </trkpt>
      <trkpt lat="46.53027" lon="-0.76087">
        <ele>45</ele>
        <time>2023-11-14T14:29:51Z</time>
      </trkpt>
      <trkpt lat="46.52992" lon="-0.76108">
        <ele>48</ele>
        <time>2023-11-14T14:30:42Z</time>
      </trkpt>
      <trkpt lat="46.52956" lon="-0.76119">
        <ele>46</ele>
        <time>2023-11-14T14:31:31Z</time>
      </trkpt>
      <trkpt lat="46.52937" lon="-0.76114">
        <ele>44</ele>
        <time>2023-11-14T14:31:57Z</time>
      </trkpt>
      <trkpt lat="46.5292" lon="-0.76106">
        <ele>43</ele>
        <time>2023-11-14T14:32:21Z</time>
      </trkpt>
      <trkpt lat="46.52901" lon="-0.76107">
        <ele>44</ele>
        <time>2023-11-14T14:32:46Z</time>
      </trkpt>
      <trkpt lat="46.52903" lon="-0.76133">
        <ele>45</ele>
        <time>2023-11-14T14:33:10Z</time>
      </trkpt>
      <trkpt lat="46.52911" lon="-0.76158">
        <ele>46</ele>
        <time>2023-11-14T14:33:35Z</time>
      </trkpt>
      <trkpt lat="46.52953" lon="-0.76267">
        <ele>56</ele>
        <time>2023-11-14T14:35:30Z</time>
      </trkpt>
      <trkpt lat="46.52937" lon="-0.76408">
        <ele>60</ele>
        <time>2023-11-14T14:37:41Z</time>
      </trkpt>
      <trkpt lat="46.5286" lon="-0.76562">
        <ele>57</ele>
        <time>2023-11-14T14:40:36Z</time>
      </trkpt>
      <trkpt lat="46.52753" lon="-0.76693">
        <ele>51</ele>
        <time>2023-11-14T14:43:43Z</time>
      </trkpt>
      <trkpt lat="46.52717" lon="-0.7672">
        <ele>50</ele>
        <time>2023-11-14T14:44:37Z</time>
      </trkpt>
      <trkpt lat="46.52692" lon="-0.76767">
        <ele>48</ele>
        <time>2023-11-14T14:45:31Z</time>
      </trkpt>
      <trkpt lat="46.52704" lon="-0.76809">
        <ele>49</ele>
        <time>2023-11-14T14:46:13Z</time>
      </trkpt>
      <trkpt lat="46.52775" lon="-0.76804">
        <ele>51</ele>
        <time>2023-11-14T14:47:48Z</time>
      </trkpt>
      <trkpt lat="46.5278" lon="-0.76778">
        <ele>53</ele>
        <time>2023-11-14T14:48:13Z</time>
      </trkpt>
      <trkpt lat="46.5279" lon="-0.76756">
        <ele>55</ele>
        <time>2023-11-14T14:48:37Z</time>
      </trkpt>
      <trkpt lat="46.52798" lon="-0.7673">
        <ele>56</ele>
        <time>2023-11-14T14:49:03Z</time>
      </trkpt>
      <trkpt lat="46.52824" lon="-0.76691">
        <ele>59</ele>
        <time>2023-11-14T14:49:53Z</time>
      </trkpt>
      <trkpt lat="46.5286" lon="-0.76677">
        <ele>65</ele>
        <time>2023-11-14T14:50:43Z</time>
      </trkpt>
      <trkpt lat="46.52878" lon="-0.76667">
        <ele>70</ele>
        <time>2023-11-14T14:51:08Z</time>
      </trkpt>
      <trkpt lat="46.52896" lon="-0.76662">
        <ele>73</ele>
        <time>2023-11-14T14:51:33Z</time>
      </trkpt>
      <trkpt lat="46.52914" lon="-0.76663">
        <ele>76</ele>
        <time>2023-11-14T14:51:57Z</time>
      </trkpt>
      <trkpt lat="46.52929" lon="-0.7664">
        <ele>78</ele>
        <time>2023-11-14T14:52:26Z</time>
      </trkpt>
      <trkpt lat="46.52942" lon="-0.76589">
        <ele>80</ele>
        <time>2023-11-14T14:53:16Z</time>
      </trkpt>
      <trkpt lat="46.52955" lon="-0.7657">
        <ele>82</ele>
        <time>2023-11-14T14:53:41Z</time>
      </trkpt>
      <trkpt lat="46.52987" lon="-0.76541">
        <ele>89</ele>
        <time>2023-11-14T14:54:31Z</time>
      </trkpt>
      <trkpt lat="46.53005" lon="-0.76549">
        <ele>93</ele>
        <time>2023-11-14T14:54:56Z</time>
      </trkpt>
      <trkpt lat="46.53032" lon="-0.76587">
        <ele>92</ele>
        <time>2023-11-14T14:55:46Z</time>
      </trkpt>
      <trkpt lat="46.53093" lon="-0.76648">
        <ele>88</ele>
        <time>2023-11-14T14:57:25Z</time>
      </trkpt>
      <trkpt lat="46.53144" lon="-0.7668">
        <ele>85</ele>
        <time>2023-11-14T14:58:39Z</time>
      </trkpt>
      <trkpt lat="46.53181" lon="-0.76696">
        <ele>86</ele>
        <time>2023-11-14T14:59:31Z</time>
      </trkpt>
      <trkpt lat="46.53385" lon="-0.76811">
        <ele>100</ele>
        <time>2023-11-14T15:04:23Z</time>
      </trkpt>
      <trkpt lat="46.53432" lon="-0.76846">
        <ele>102</ele>
        <time>2023-11-14T15:05:33Z</time>
      </trkpt>
      <trkpt lat="46.53514" lon="-0.76856">
        <ele>105</ele>
        <time>2023-11-14T15:07:23Z</time>
      </trkpt>
      <trkpt lat="46.53661" lon="-0.76825">
        <ele>104</ele>
        <time>2023-11-14T15:10:41Z</time>
      </trkpt>
      <trkpt lat="46.53726" lon="-0.76916">
        <ele>95</ele>
        <time>2023-11-14T15:12:42Z</time>
      </trkpt>
      <trkpt lat="46.53655" lon="-0.77082">
        <ele>91</ele>
        <time>2023-11-14T15:15:41Z</time>
      </trkpt>
      <trkpt lat="46.53651" lon="-0.7722">
        <ele>84</ele>
        <time>2023-11-14T15:17:48Z</time>
      </trkpt>
      <trkpt lat="46.53611" lon="-0.7736">
        <ele>73</ele>
        <time>2023-11-14T15:20:07Z</time>
      </trkpt>
      <trkpt lat="46.53582" lon="-0.77391">
        <ele>70</ele>
        <time>2023-11-14T15:20:55Z</time>
      </trkpt>
      <trkpt lat="46.5357" lon="-0.77464">
        <ele>63</ele>
        <time>2023-11-14T15:22:04Z</time>
      </trkpt>
      <trkpt lat="46.53516" lon="-0.77491">
        <ele>55</ele>
        <time>2023-11-14T15:23:20Z</time>
      </trkpt>
      <trkpt lat="46.53449" lon="-0.77439">
        <ele>53</ele>
        <time>2023-11-14T15:25:01Z</time>
      </trkpt>
      <trkpt lat="46.53399" lon="-0.77361">
        <ele>53</ele>
        <time>2023-11-14T15:26:39Z</time>
      </trkpt>
      <trkpt lat="46.53386" lon="-0.77362">
        <ele>52</ele>
        <time>2023-11-14T15:26:57Z</time>
      </trkpt>
      <trkpt lat="46.53367" lon="-0.77375">
        <ele>49</ele>
        <time>2023-11-14T15:27:25Z</time>
      </trkpt>
      <trkpt lat="46.5334" lon="-0.77415">
        <ele>50</ele>
        <time>2023-11-14T15:28:16Z</time>
      </trkpt>
      <trkpt lat="46.53325" lon="-0.7743">
        <ele>54</ele>
        <time>2023-11-14T15:28:40Z</time>
      </trkpt>
      <trkpt lat="46.53316" lon="-0.77454">
        <ele>58</ele>
        <time>2023-11-14T15:29:06Z</time>
      </trkpt>
      <trkpt lat="46.5331" lon="-0.7748">
        <ele>61</ele>
        <time>2023-11-14T15:29:31Z</time>
      </trkpt>
      <trkpt lat="46.53286" lon="-0.77521">
        <ele>63</ele>
        <time>2023-11-14T15:30:20Z</time>
      </trkpt>
      <trkpt lat="46.53272" lon="-0.77538">
        <ele>63</ele>
        <time>2023-11-14T15:30:44Z</time>
      </trkpt>
      <trkpt lat="46.53253" lon="-0.77536">
        <ele>61</ele>
        <time>2023-11-14T15:31:10Z</time>
      </trkpt>
      <trkpt lat="46.53251" lon="-0.77509">
        <ele>60</ele>
        <time>2023-11-14T15:31:35Z</time>
      </trkpt>
      <trkpt lat="46.53262" lon="-0.7743">
        <ele>60</ele>
        <time>2023-11-14T15:32:49Z</time>
      </trkpt>
      <trkpt lat="46.53259" lon="-0.77404">
        <ele>58</ele>
        <time>2023-11-14T15:33:13Z</time>
      </trkpt>
      <trkpt lat="46.53245" lon="-0.77386">
        <ele>58</ele>
        <time>2023-11-14T15:33:38Z</time>
      </trkpt>
      <trkpt lat="46.53234" lon="-0.77407">
        <ele>62</ele>
        <time>2023-11-14T15:34:02Z</time>
      </trkpt>
      <trkpt lat="46.53229" lon="-0.77433">
        <ele>64</ele>
        <time>2023-11-14T15:34:27Z</time>
      </trkpt>
      <trkpt lat="46.53193" lon="-0.77451">
        <ele>71</ele>
        <time>2023-11-14T15:35:18Z</time>
      </trkpt>
      <trkpt lat="46.53175" lon="-0.77454">
        <ele>74</ele>
        <time>2023-11-14T15:35:42Z</time>
      </trkpt>
      <trkpt lat="46.53159" lon="-0.77467">
        <ele>76</ele>
        <time>2023-11-14T15:36:06Z</time>
      </trkpt>
      <trkpt lat="46.53144" lon="-0.77484">
        <ele>78</ele>
        <time>2023-11-14T15:36:32Z</time>
      </trkpt>
      <trkpt lat="46.53134" lon="-0.77506">
        <ele>80</ele>
        <time>2023-11-14T15:36:56Z</time>
      </trkpt>
      <trkpt lat="46.53119" lon="-0.77522">
        <ele>82</ele>
        <time>2023-11-14T15:37:21Z</time>
      </trkpt>
      <trkpt lat="46.53106" lon="-0.77541">
        <ele>84</ele>
        <time>2023-11-14T15:37:45Z</time>
      </trkpt>
      <trkpt lat="46.53088" lon="-0.77553">
        <ele>87</ele>
        <time>2023-11-14T15:38:12Z</time>
      </trkpt>
      <trkpt lat="46.53069" lon="-0.77556">
        <ele>88</ele>
        <time>2023-11-14T15:38:37Z</time>
      </trkpt>
      <trkpt lat="46.53059" lon="-0.77578">
        <ele>90</ele>
        <time>2023-11-14T15:39:02Z</time>
      </trkpt>
      <trkpt lat="46.53045" lon="-0.77628">
        <ele>91</ele>
        <time>2023-11-14T15:39:51Z</time>
      </trkpt>
      <trkpt lat="46.53023" lon="-0.77672">
        <ele>93</ele>
        <time>2023-11-14T15:40:41Z</time>
      </trkpt>
      <trkpt lat="46.53016" lon="-0.77697">
        <ele>93</ele>
        <time>2023-11-14T15:41:06Z</time>
      </trkpt>
      <trkpt lat="46.52993" lon="-0.77741">
        <ele>95</ele>
        <time>2023-11-14T15:41:57Z</time>
      </trkpt>
      <trkpt lat="46.52964" lon="-0.77774">
        <ele>95</ele>
        <time>2023-11-14T15:42:46Z</time>
      </trkpt>
      <trkpt lat="46.52964" lon="-0.77801">
        <ele>94</ele>
        <time>2023-11-14T15:43:10Z</time>
      </trkpt>
      <trkpt lat="46.52971" lon="-0.77826">
        <ele>94</ele>
        <time>2023-11-14T15:43:35Z</time>
      </trkpt>
      <trkpt lat="46.52971" lon="-0.77881">
        <ele>90</ele>
        <time>2023-11-14T15:44:26Z</time>
      </trkpt>
      <trkpt lat="46.52966" lon="-0.77933">
        <ele>87</ele>
        <time>2023-11-14T15:45:14Z</time>
      </trkpt>
      <trkpt lat="46.52968" lon="-0.77987">
        <ele>86</ele>
        <time>2023-11-14T15:46:04Z</time>
      </trkpt>
      <trkpt lat="46.52954" lon="-0.78037">
        <ele>87</ele>
        <time>2023-11-14T15:46:53Z</time>
      </trkpt>
      <trkpt lat="46.52956" lon="-0.78065">
        <ele>88</ele>
        <time>2023-11-14T15:47:19Z</time>
      </trkpt>
      <trkpt lat="46.52963" lon="-0.7809">
        <ele>88</ele>
        <time>2023-11-14T15:47:44Z</time>
      </trkpt>
      <trkpt lat="46.52982" lon="-0.78138">
        <ele>89</ele>
        <time>2023-11-14T15:48:35Z</time>
      </trkpt>
      <trkpt lat="46.53022" lon="-0.78227">
        <ele>92</ele>
        <time>2023-11-14T15:50:12Z</time>
      </trkpt>
      <trkpt lat="46.53043" lon="-0.78332">
        <ele>91</ele>
        <time>2023-11-14T15:51:53Z</time>
      </trkpt>
      <trkpt lat="46.53059" lon="-0.78381">
        <ele>91</ele>
        <time>2023-11-14T15:52:42Z</time>
      </trkpt>
      <trkpt lat="46.53094" lon="-0.78444">
        <ele>91</ele>
        <time>2023-11-14T15:53:57Z</time>
      </trkpt>
      <trkpt lat="46.53108" lon="-0.78462">
        <ele>92</ele>
        <time>2023-11-14T15:54:22Z</time>
      </trkpt>
      <trkpt lat="46.53124" lon="-0.78474">
        <ele>93</ele>
        <time>2023-11-14T15:54:46Z</time>
      </trkpt>
      <trkpt lat="46.53139" lon="-0.78491">
        <ele>94</ele>
        <time>2023-11-14T15:55:11Z</time>
      </trkpt>
      <trkpt lat="46.53151" lon="-0.7851">
        <ele>95</ele>
        <time>2023-11-14T15:55:35Z</time>
      </trkpt>
      <trkpt lat="46.53141" lon="-0.78531">
        <ele>95</ele>
        <time>2023-11-14T15:55:58Z</time>
      </trkpt>
      <trkpt lat="46.53124" lon="-0.78541">
        <ele>95</ele>
        <time>2023-11-14T15:56:23Z</time>
      </trkpt>
      <trkpt lat="46.53094" lon="-0.78573">
        <ele>97</ele>
        <time>2023-11-14T15:57:12Z</time>
      </trkpt>
      <trkpt lat="46.53075" lon="-0.78577">
        <ele>97</ele>
        <time>2023-11-14T15:57:38Z</time>
      </trkpt>
      <trkpt lat="46.53057" lon="-0.78585">
        <ele>98</ele>
        <time>2023-11-14T15:58:03Z</time>
      </trkpt>
      <trkpt lat="46.53044" lon="-0.78604">
        <ele>99</ele>
        <time>2023-11-14T15:58:28Z</time>
      </trkpt>
      <trkpt lat="46.53028" lon="-0.78617">
        <ele>100</ele>
        <time>2023-11-14T15:58:52Z</time>
      </trkpt>
      <trkpt lat="46.5301" lon="-0.78625">
        <ele>101</ele>
        <time>2023-11-14T15:59:17Z</time>
      </trkpt>
      <trkpt lat="46.52955" lon="-0.7864">
        <ele>103</ele>
        <time>2023-11-14T16:00:32Z</time>
      </trkpt>
      <trkpt lat="46.52957" lon="-0.78667">
        <ele>103</ele>
        <time>2023-11-14T16:00:57Z</time>
      </trkpt>
      <trkpt lat="46.52968" lon="-0.78718">
        <ele>103</ele>
        <time>2023-11-14T16:01:46Z</time>
      </trkpt>
      <trkpt lat="46.52974" lon="-0.78771">
        <ele>104</ele>
        <time>2023-11-14T16:02:35Z</time>
      </trkpt>
      <trkpt lat="46.52992" lon="-0.78848">
        <ele>104</ele>
        <time>2023-11-14T16:03:50Z</time>
      </trkpt>
      <trkpt lat="46.52994" lon="-0.78875">
        <ele>105</ele>
        <time>2023-11-14T16:04:15Z</time>
      </trkpt>
      <trkpt lat="46.53001" lon="-0.78901">
        <ele>105</ele>
        <time>2023-11-14T16:04:41Z</time>
      </trkpt>
      <trkpt lat="46.53004" lon="-0.78928">
        <ele>107</ele>
        <time>2023-11-14T16:05:06Z</time>
      </trkpt>
      <trkpt lat="46.53011" lon="-0.78953">
        <ele>108</ele>
        <time>2023-11-14T16:05:30Z</time>
      </trkpt>
      <trkpt lat="46.53013" lon="-0.78979">
        <ele>110</ele>
        <time>2023-11-14T16:05:54Z</time>
      </trkpt>
      <trkpt lat="46.53036" lon="-0.7911">
        <ele>114</ele>
        <time>2023-11-14T16:07:59Z</time>
      </trkpt>
      <trkpt lat="46.53043" lon="-0.79162">
        <ele>115</ele>
        <time>2023-11-14T16:08:47Z</time>
      </trkpt>
      <trkpt lat="46.53062" lon="-0.7916">
        <ele>115</ele>
        <time>2023-11-14T16:09:13Z</time>
      </trkpt>
      <trkpt lat="46.53098" lon="-0.79146">
        <ele>114</ele>
        <time>2023-11-14T16:10:02Z</time>
      </trkpt>
      <trkpt lat="46.5315" lon="-0.7912">
        <ele>112</ele>
        <time>2023-11-14T16:11:16Z</time>
      </trkpt>
      <trkpt lat="46.53186" lon="-0.79109">
        <ele>111</ele>
        <time>2023-11-14T16:12:05Z</time>
      </trkpt>
      <trkpt lat="46.53203" lon="-0.79096">
        <ele>109</ele>
        <time>2023-11-14T16:12:30Z</time>
      </trkpt>
      <trkpt lat="46.53239" lon="-0.79077">
        <ele>107</ele>
        <time>2023-11-14T16:13:22Z</time>
      </trkpt>
      <trkpt lat="46.53258" lon="-0.79076">
        <ele>107</ele>
        <time>2023-11-14T16:13:47Z</time>
      </trkpt>
      <trkpt lat="46.53276" lon="-0.79081">
        <ele>107</ele>
        <time>2023-11-14T16:14:11Z</time>
      </trkpt>
      <trkpt lat="46.53293" lon="-0.79067">
        <ele>107</ele>
        <time>2023-11-14T16:14:37Z</time>
      </trkpt>
      <trkpt lat="46.53311" lon="-0.7906">
        <ele>107</ele>
        <time>2023-11-14T16:15:02Z</time>
      </trkpt>
      <trkpt lat="46.53299" lon="-0.79062">
        <ele>107</ele>
        <time>2023-11-14T16:15:18Z</time>
      </trkpt>
      <trkpt lat="46.53313" lon="-0.79078">
        <ele>108</ele>
        <time>2023-11-14T16:15:42Z</time>
      </trkpt>
      <trkpt lat="46.53387" lon="-0.7908">
        <ele>110</ele>
        <time>2023-11-14T16:17:21Z</time>
      </trkpt>
      <trkpt lat="46.53553" lon="-0.7909">
        <ele>107</ele>
        <time>2023-11-14T16:21:03Z</time>
      </trkpt>
      <trkpt lat="46.53571" lon="-0.79094">
        <ele>106</ele>
        <time>2023-11-14T16:21:27Z</time>
      </trkpt>
      <trkpt lat="46.5359" lon="-0.79095">
        <ele>105</ele>
        <time>2023-11-14T16:21:52Z</time>
      </trkpt>
      <trkpt lat="46.53627" lon="-0.79092">
        <ele>104</ele>
        <time>2023-11-14T16:22:42Z</time>
      </trkpt>
      <trkpt lat="46.53646" lon="-0.79095">
        <ele>103</ele>
        <time>2023-11-14T16:23:07Z</time>
      </trkpt>
      <trkpt lat="46.53683" lon="-0.79095">
        <ele>103</ele>
        <time>2023-11-14T16:23:57Z</time>
      </trkpt>
      <trkpt lat="46.53738" lon="-0.79105">
        <ele>107</ele>
        <time>2023-11-14T16:25:11Z</time>
      </trkpt>
      <trkpt lat="46.53756" lon="-0.79104">
        <ele>108</ele>
        <time>2023-11-14T16:25:35Z</time>
      </trkpt>
      <trkpt lat="46.53811" lon="-0.7911">
        <ele>110</ele>
        <time>2023-11-14T16:26:48Z</time>
      </trkpt>
      <trkpt lat="46.5383" lon="-0.79115">
        <ele>110</ele>
        <time>2023-11-14T16:27:14Z</time>
      </trkpt>
      <trkpt lat="46.53868" lon="-0.79116">
        <ele>112</ele>
        <time>2023-11-14T16:28:05Z</time>
      </trkpt>
      <trkpt lat="46.53886" lon="-0.79111">
        <ele>113</ele>
        <time>2023-11-14T16:28:29Z</time>
      </trkpt>
      <trkpt lat="46.53901" lon="-0.79097">
        <ele>113</ele>
        <time>2023-11-14T16:28:53Z</time>
      </trkpt>
      <trkpt lat="46.53925" lon="-0.79057">
        <ele>112</ele>
        <time>2023-11-14T16:29:42Z</time>
      </trkpt>
      <trkpt lat="46.53954" lon="-0.79023">
        <ele>109</ele>
        <time>2023-11-14T16:30:31Z</time>
      </trkpt>
      <trkpt lat="46.53984" lon="-0.78954">
        <ele>107</ele>
        <time>2023-11-14T16:31:46Z</time>
      </trkpt>
      <trkpt lat="46.53994" lon="-0.78903">
        <ele>106</ele>
        <time>2023-11-14T16:32:35Z</time>
      </trkpt>
      <trkpt lat="46.54003" lon="-0.78879">
        <ele>106</ele>
        <time>2023-11-14T16:33:00Z</time>
      </trkpt>
      <trkpt lat="46.54008" lon="-0.78853">
        <ele>106</ele>
        <time>2023-11-14T16:33:25Z</time>
      </trkpt>
      <trkpt lat="46.54018" lon="-0.7883">
        <ele>106</ele>
        <time>2023-11-14T16:33:50Z</time>
      </trkpt>
      <trkpt lat="46.5403" lon="-0.7881">
        <ele>106</ele>
        <time>2023-11-14T16:34:14Z</time>
      </trkpt>
      <trkpt lat="46.54047" lon="-0.78796">
        <ele>106</ele>
        <time>2023-11-14T16:34:40Z</time>
      </trkpt>
      <trkpt lat="46.54081" lon="-0.78774">
        <ele>106</ele>
        <time>2023-11-14T16:35:30Z</time>
      </trkpt>
      <trkpt lat="46.54124" lon="-0.78724">
        <ele>105</ele>
        <time>2023-11-14T16:36:43Z</time>
      </trkpt>
      <trkpt lat="46.54137" lon="-0.78704">
        <ele>106</ele>
        <time>2023-11-14T16:37:09Z</time>
      </trkpt>
      <trkpt lat="46.54158" lon="-0.78684">
        <ele>106</ele>
        <time>2023-11-14T16:37:42Z</time>
      </trkpt>
      <trkpt lat="46.54114" lon="-0.78391">
        <ele>102</ele>
        <time>2023-11-14T16:42:18Z</time>
      </trkpt>
      <trkpt lat="46.54144" lon="-0.78364">
        <ele>101</ele>
        <time>2023-11-14T16:43:05Z</time>
      </trkpt>
      <trkpt lat="46.54165" lon="-0.78314">
        <ele>99</ele>
        <time>2023-11-14T16:43:58Z</time>
      </trkpt>
      <trkpt lat="46.54219" lon="-0.78298">
        <ele>90</ele>
        <time>2023-11-14T16:45:12Z</time>
      </trkpt>
      <trkpt lat="46.54241" lon="-0.78327">
        <ele>88</ele>
        <time>2023-11-14T16:45:52Z</time>
      </trkpt>
      <trkpt lat="46.54274" lon="-0.78338">
        <ele>83</ele>
        <time>2023-11-14T16:46:37Z</time>
      </trkpt>
      <trkpt lat="46.5427" lon="-0.78312">
        <ele>81</ele>
        <time>2023-11-14T16:47:01Z</time>
      </trkpt>
      <trkpt lat="46.54262" lon="-0.78286">
        <ele>80</ele>
        <time>2023-11-14T16:47:27Z</time>
      </trkpt>
      <trkpt lat="46.54268" lon="-0.7826">
        <ele>76</ele>
        <time>2023-11-14T16:47:52Z</time>
      </trkpt>
      <trkpt lat="46.54278" lon="-0.78237">
        <ele>71</ele>
        <time>2023-11-14T16:48:17Z</time>
      </trkpt>
      <trkpt lat="46.54295" lon="-0.78227">
        <ele>65</ele>
        <time>2023-11-14T16:48:42Z</time>
      </trkpt>
      <trkpt lat="46.5429" lon="-0.782">
        <ele>65</ele>
        <time>2023-11-14T16:49:08Z</time>
      </trkpt>
      <trkpt lat="46.54285" lon="-0.78146">
        <ele>65</ele>
        <time>2023-11-14T16:49:58Z</time>
      </trkpt>
      <trkpt lat="46.54291" lon="-0.78066">
        <ele>62</ele>
        <time>2023-11-14T16:51:11Z</time>
      </trkpt>
      <trkpt lat="46.54302" lon="-0.78044">
        <ele>58</ele>
        <time>2023-11-14T16:51:36Z</time>
      </trkpt>
      <trkpt lat="46.54293" lon="-0.78067">
        <ele>62</ele>
        <time>2023-11-14T16:52:01Z</time>
      </trkpt>
      <trkpt lat="46.54291" lon="-0.78093">
        <ele>62</ele>
        <time>2023-11-14T16:52:25Z</time>
      </trkpt>
      <trkpt lat="46.54305" lon="-0.7811">
        <ele>56</ele>
        <time>2023-11-14T16:52:49Z</time>
      </trkpt>
      <trkpt lat="46.54323" lon="-0.78115">
        <ele>48</ele>
        <time>2023-11-14T16:53:14Z</time>
      </trkpt>
      <trkpt lat="46.54342" lon="-0.78117">
        <ele>45</ele>
        <time>2023-11-14T16:53:39Z</time>
      </trkpt>
      <trkpt lat="46.54397" lon="-0.78117">
        <ele>51</ele>
        <time>2023-11-14T16:54:52Z</time>
      </trkpt>
      <trkpt lat="46.54415" lon="-0.78127">
        <ele>53</ele>
        <time>2023-11-14T16:55:18Z</time>
      </trkpt>
      <trkpt lat="46.5442" lon="-0.78152">
        <ele>53</ele>
        <time>2023-11-14T16:55:42Z</time>
      </trkpt>
      <trkpt lat="46.54431" lon="-0.78175">
        <ele>53</ele>
        <time>2023-11-14T16:56:08Z</time>
      </trkpt>
      <trkpt lat="46.54445" lon="-0.78193">
        <ele>54</ele>
        <time>2023-11-14T16:56:33Z</time>
      </trkpt>
      <trkpt lat="46.54461" lon="-0.78206">
        <ele>54</ele>
        <time>2023-11-14T16:56:57Z</time>
      </trkpt>
      <trkpt lat="46.54479" lon="-0.78213">
        <ele>54</ele>
        <time>2023-11-14T16:57:22Z</time>
      </trkpt>
      <trkpt lat="46.54499" lon="-0.78212">
        <ele>55</ele>
        <time>2023-11-14T16:57:49Z</time>
      </trkpt>
      <trkpt lat="46.54533" lon="-0.78196">
        <ele>55</ele>
        <time>2023-11-14T16:58:36Z</time>
      </trkpt>
      <trkpt lat="46.5455" lon="-0.78185">
        <ele>54</ele>
        <time>2023-11-14T16:59:01Z</time>
      </trkpt>
      <trkpt lat="46.54568" lon="-0.78177">
        <ele>54</ele>
        <time>2023-11-14T16:59:26Z</time>
      </trkpt>
      <trkpt lat="46.54601" lon="-0.78151">
        <ele>54</ele>
        <time>2023-11-14T17:00:16Z</time>
      </trkpt>
      <trkpt lat="46.54615" lon="-0.78167">
        <ele>51</ele>
        <time>2023-11-14T17:00:40Z</time>
      </trkpt>
      <trkpt lat="46.54632" lon="-0.78157">
        <ele>52</ele>
        <time>2023-11-14T17:01:05Z</time>
      </trkpt>
      <trkpt lat="46.54614" lon="-0.78152">
        <ele>53</ele>
        <time>2023-11-14T17:01:29Z</time>
      </trkpt>
      <trkpt lat="46.54612" lon="-0.78124">
        <ele>57</ele>
        <time>2023-11-14T17:01:55Z</time>
      </trkpt>
      <trkpt lat="46.54607" lon="-0.78099">
        <ele>60</ele>
        <time>2023-11-14T17:02:19Z</time>
      </trkpt>
      <trkpt lat="46.54599" lon="-0.78075">
        <ele>64</ele>
        <time>2023-11-14T17:02:43Z</time>
      </trkpt>
      <trkpt lat="46.54586" lon="-0.78056">
        <ele>69</ele>
        <time>2023-11-14T17:03:08Z</time>
      </trkpt>
      <trkpt lat="46.54565" lon="-0.7801">
        <ele>76</ele>
        <time>2023-11-14T17:03:59Z</time>
      </trkpt>
      <trkpt lat="46.54549" lon="-0.77935">
        <ele>78</ele>
        <time>2023-11-14T17:05:11Z</time>
      </trkpt>
      <trkpt lat="46.54552" lon="-0.77907">
        <ele>78</ele>
        <time>2023-11-14T17:05:37Z</time>
      </trkpt>
      <trkpt lat="46.5457" lon="-0.77862">
        <ele>80</ele>
        <time>2023-11-14T17:06:24Z</time>
      </trkpt>
      <trkpt lat="46.54582" lon="-0.77811">
        <ele>82</ele>
        <time>2023-11-14T17:07:14Z</time>
      </trkpt>
      <trkpt lat="46.54607" lon="-0.7777">
        <ele>84</ele>
        <time>2023-11-14T17:08:04Z</time>
      </trkpt>
      <trkpt lat="46.54621" lon="-0.77752">
        <ele>84</ele>
        <time>2023-11-14T17:08:29Z</time>
      </trkpt>
      <trkpt lat="46.54628" lon="-0.77728">
        <ele>85</ele>
        <time>2023-11-14T17:08:53Z</time>
      </trkpt>
      <trkpt lat="46.54636" lon="-0.77648">
        <ele>87</ele>
        <time>2023-11-14T17:10:07Z</time>
      </trkpt>
      <trkpt lat="46.54649" lon="-0.77599">
        <ele>88</ele>
        <time>2023-11-14T17:10:55Z</time>
      </trkpt>
      <trkpt lat="46.54651" lon="-0.77491">
        <ele>90</ele>
        <time>2023-11-14T17:12:35Z</time>
      </trkpt>
      <trkpt lat="46.54635" lon="-0.77442">
        <ele>90</ele>
        <time>2023-11-14T17:13:24Z</time>
      </trkpt>
      <trkpt lat="46.5463" lon="-0.77416">
        <ele>91</ele>
        <time>2023-11-14T17:13:49Z</time>
      </trkpt>
      <trkpt lat="46.54624" lon="-0.77334">
        <ele>90</ele>
        <time>2023-11-14T17:15:05Z</time>
      </trkpt>
      <trkpt lat="46.54619" lon="-0.77308">
        <ele>89</ele>
        <time>2023-11-14T17:15:30Z</time>
      </trkpt>
      <trkpt lat="46.54599" lon="-0.77263">
        <ele>89</ele>
        <time>2023-11-14T17:16:19Z</time>
      </trkpt>
      <trkpt lat="46.54616" lon="-0.77252">
        <ele>88</ele>
        <time>2023-11-14T17:16:44Z</time>
      </trkpt>
      <trkpt lat="46.54651" lon="-0.77266">
        <ele>87</ele>
        <time>2023-11-14T17:17:32Z</time>
      </trkpt>
      <trkpt lat="46.54723" lon="-0.77284">
        <ele>83</ele>
        <time>2023-11-14T17:19:10Z</time>
      </trkpt>
      <trkpt lat="46.54777" lon="-0.77304">
        <ele>80</ele>
        <time>2023-11-14T17:20:24Z</time>
      </trkpt>
      <trkpt lat="46.54831" lon="-0.77314">
        <ele>74</ele>
        <time>2023-11-14T17:21:37Z</time>
      </trkpt>
      <trkpt lat="46.54884" lon="-0.77339">
        <ele>72</ele>
        <time>2023-11-14T17:22:51Z</time>
      </trkpt>
      <trkpt lat="46.54902" lon="-0.77342">
        <ele>71</ele>
        <time>2023-11-14T17:23:15Z</time>
      </trkpt>
      <trkpt lat="46.54938" lon="-0.77357">
        <ele>71</ele>
        <time>2023-11-14T17:24:05Z</time>
      </trkpt>
      <trkpt lat="46.54974" lon="-0.77364">
        <ele>72</ele>
        <time>2023-11-14T17:24:54Z</time>
      </trkpt>
      <trkpt lat="46.54992" lon="-0.77373">
        <ele>73</ele>
        <time>2023-11-14T17:25:19Z</time>
      </trkpt>
      <trkpt lat="46.55008" lon="-0.77385">
        <ele>74</ele>
        <time>2023-11-14T17:25:43Z</time>
      </trkpt>
      <trkpt lat="46.55027" lon="-0.77393">
        <ele>74</ele>
        <time>2023-11-14T17:26:09Z</time>
      </trkpt>
      <trkpt lat="46.55045" lon="-0.77394">
        <ele>74</ele>
        <time>2023-11-14T17:26:33Z</time>
      </trkpt>
      <trkpt lat="46.55081" lon="-0.77407">
        <ele>73</ele>
        <time>2023-11-14T17:27:23Z</time>
      </trkpt>
      <trkpt lat="46.55099" lon="-0.7741">
        <ele>73</ele>
        <time>2023-11-14T17:27:47Z</time>
      </trkpt>
      <trkpt lat="46.55117" lon="-0.77403">
        <ele>72</ele>
        <time>2023-11-14T17:28:12Z</time>
      </trkpt>
      <trkpt lat="46.55144" lon="-0.77367">
        <ele>71</ele>
        <time>2023-11-14T17:29:01Z</time>
      </trkpt>
      <trkpt lat="46.55159" lon="-0.77351">
        <ele>71</ele>
        <time>2023-11-14T17:29:26Z</time>
      </trkpt>
      <trkpt lat="46.55207" lon="-0.77311">
        <ele>73</ele>
        <time>2023-11-14T17:30:39Z</time>
      </trkpt>
      <trkpt lat="46.55266" lon="-0.77245">
        <ele>74</ele>
        <time>2023-11-14T17:32:19Z</time>
      </trkpt>
      <trkpt lat="46.55284" lon="-0.77238">
        <ele>75</ele>
        <time>2023-11-14T17:32:44Z</time>
      </trkpt>
      <trkpt lat="46.553" lon="-0.77227">
        <ele>75</ele>
        <time>2023-11-14T17:33:07Z</time>
      </trkpt>
      <trkpt lat="46.55338" lon="-0.77219">
        <ele>76</ele>
        <time>2023-11-14T17:33:59Z</time>
      </trkpt>
      <trkpt lat="46.55355" lon="-0.77218">
        <ele>75</ele>
        <time>2023-11-14T17:34:21Z</time>
      </trkpt>
      <trkpt lat="46.55374" lon="-0.77224">
        <ele>74</ele>
        <time>2023-11-14T17:34:47Z</time>
      </trkpt>
      <trkpt lat="46.55392" lon="-0.77217">
        <ele>73</ele>
        <time>2023-11-14T17:35:12Z</time>
      </trkpt>
      <trkpt lat="46.55406" lon="-0.772">
        <ele>72</ele>
        <time>2023-11-14T17:35:36Z</time>
      </trkpt>
      <trkpt lat="46.55438" lon="-0.77173">
        <ele>69</ele>
        <time>2023-11-14T17:36:26Z</time>
      </trkpt>
      <trkpt lat="46.55452" lon="-0.77157">
        <ele>68</ele>
        <time>2023-11-14T17:36:50Z</time>
      </trkpt>
      <trkpt lat="46.55484" lon="-0.77127">
        <ele>67</ele>
        <time>2023-11-14T17:37:40Z</time>
      </trkpt>
      <trkpt lat="46.555" lon="-0.77116">
        <ele>66</ele>
        <time>2023-11-14T17:38:04Z</time>
      </trkpt>
      <trkpt lat="46.55515" lon="-0.771">
        <ele>66</ele>
        <time>2023-11-14T17:38:29Z</time>
      </trkpt>
      <trkpt lat="46.55522" lon="-0.77073">
        <ele>66</ele>
        <time>2023-11-14T17:38:55Z</time>
      </trkpt>
      <trkpt lat="46.55531" lon="-0.77051">
        <ele>66</ele>
        <time>2023-11-14T17:39:19Z</time>
      </trkpt>
      <trkpt lat="46.55559" lon="-0.77015">
        <ele>65</ele>
        <time>2023-11-14T17:40:09Z</time>
      </trkpt>
      <trkpt lat="46.55614" lon="-0.77009">
        <ele>64</ele>
        <time>2023-11-14T17:41:22Z</time>
      </trkpt>
      <trkpt lat="46.55649" lon="-0.77025">
        <ele>65</ele>
        <time>2023-11-14T17:42:11Z</time>
      </trkpt>
      <trkpt lat="46.55719" lon="-0.77065">
        <ele>67</ele>
        <time>2023-11-14T17:43:52Z</time>
      </trkpt>
      <trkpt lat="46.55736" lon="-0.77077">
        <ele>68</ele>
        <time>2023-11-14T17:44:17Z</time>
      </trkpt>
      <trkpt lat="46.55771" lon="-0.77094">
        <ele>68</ele>
        <time>2023-11-14T17:45:06Z</time>
      </trkpt>
      <trkpt lat="46.55789" lon="-0.77101">
        <ele>68</ele>
        <time>2023-11-14T17:45:31Z</time>
      </trkpt>
      <trkpt lat="46.55844" lon="-0.77114">
        <ele>69</ele>
        <time>2023-11-14T17:46:45Z</time>
      </trkpt>
      <trkpt lat="46.55897" lon="-0.77139">
        <ele>69</ele>
        <time>2023-11-14T17:48:00Z</time>
      </trkpt>
      <trkpt lat="46.55948" lon="-0.77171">
        <ele>67</ele>
        <time>2023-11-14T17:49:14Z</time>
      </trkpt>
      <trkpt lat="46.55966" lon="-0.77177">
        <ele>66</ele>
        <time>2023-11-14T17:49:38Z</time>
      </trkpt>
      <trkpt lat="46.55984" lon="-0.77179">
        <ele>66</ele>
        <time>2023-11-14T17:50:02Z</time>
      </trkpt>
      <trkpt lat="46.56003" lon="-0.77177">
        <ele>66</ele>
        <time>2023-11-14T17:50:28Z</time>
      </trkpt>
      <trkpt lat="46.56022" lon="-0.7718">
        <ele>66</ele>
        <time>2023-11-14T17:50:53Z</time>
      </trkpt>
      <trkpt lat="46.56039" lon="-0.77188">
        <ele>67</ele>
        <time>2023-11-14T17:51:17Z</time>
      </trkpt>
      <trkpt lat="46.56157" lon="-0.7727">
        <ele>67</ele>
        <time>2023-11-14T17:54:12Z</time>
      </trkpt>
      <trkpt lat="46.56193" lon="-0.7729">
        <ele>65</ele>
        <time>2023-11-14T17:55:03Z</time>
      </trkpt>
      <trkpt lat="46.56211" lon="-0.77294">
        <ele>64</ele>
        <time>2023-11-14T17:55:27Z</time>
      </trkpt>
      <trkpt lat="46.56267" lon="-0.77305">
        <ele>61</ele>
        <time>2023-11-14T17:56:43Z</time>
      </trkpt>
      <trkpt lat="46.56304" lon="-0.77309">
        <ele>62</ele>
        <time>2023-11-14T17:57:32Z</time>
      </trkpt>
      <trkpt lat="46.56322" lon="-0.77317">
        <ele>63</ele>
        <time>2023-11-14T17:57:57Z</time>
      </trkpt>
      <trkpt lat="46.56341" lon="-0.77314">
        <ele>63</ele>
        <time>2023-11-14T17:58:23Z</time>
      </trkpt>
      <trkpt lat="46.56359" lon="-0.77308">
        <ele>64</ele>
        <time>2023-11-14T17:58:48Z</time>
      </trkpt>
      <trkpt lat="46.56393" lon="-0.77286">
        <ele>64</ele>
        <time>2023-11-14T17:59:37Z</time>
      </trkpt>
      <trkpt lat="46.56411" lon="-0.7728">
        <ele>64</ele>
        <time>2023-11-14T18:00:02Z</time>
      </trkpt>
      <trkpt lat="46.56465" lon="-0.77254">
        <ele>66</ele>
        <time>2023-11-14T18:01:18Z</time>
      </trkpt>
      <trkpt lat="46.56484" lon="-0.77253">
        <ele>67</ele>
        <time>2023-11-14T18:01:43Z</time>
      </trkpt>
      <trkpt lat="46.56596" lon="-0.77264">
        <ele>70</ele>
        <time>2023-11-14T18:04:13Z</time>
      </trkpt>
      <trkpt lat="46.56652" lon="-0.77263">
        <ele>71</ele>
        <time>2023-11-14T18:05:28Z</time>
      </trkpt>
      <trkpt lat="46.56708" lon="-0.77256">
        <ele>72</ele>
        <time>2023-11-14T18:06:43Z</time>
      </trkpt>
      <trkpt lat="46.56727" lon="-0.77251">
        <ele>72</ele>
        <time>2023-11-14T18:07:09Z</time>
      </trkpt>
      <trkpt lat="46.56738" lon="-0.77272">
        <ele>73</ele>
        <time>2023-11-14T18:07:33Z</time>
      </trkpt>
      <trkpt lat="46.56754" lon="-0.77321">
        <ele>73</ele>
        <time>2023-11-14T18:08:23Z</time>
      </trkpt>
      <trkpt lat="46.56779" lon="-0.77361">
        <ele>73</ele>
        <time>2023-11-14T18:09:12Z</time>
      </trkpt>
      <trkpt lat="46.5682" lon="-0.77414">
        <ele>73</ele>
        <time>2023-11-14T18:10:25Z</time>
      </trkpt>
      <trkpt lat="46.56853" lon="-0.77442">
        <ele>73</ele>
        <time>2023-11-14T18:11:16Z</time>
      </trkpt>
      <trkpt lat="46.56907" lon="-0.77467">
        <ele>72</ele>
        <time>2023-11-14T18:12:32Z</time>
      </trkpt>
      <trkpt lat="46.56925" lon="-0.77464">
        <ele>71</ele>
        <time>2023-11-14T18:12:56Z</time>
      </trkpt>
      <trkpt lat="46.56936" lon="-0.77443">
        <ele>71</ele>
        <time>2023-11-14T18:13:20Z</time>
      </trkpt>
      <trkpt lat="46.56949" lon="-0.77364">
        <ele>69</ele>
        <time>2023-11-14T18:14:35Z</time>
      </trkpt>
      <trkpt lat="46.56956" lon="-0.77339">
        <ele>68</ele>
        <time>2023-11-14T18:15:00Z</time>
      </trkpt>
      <trkpt lat="46.56972" lon="-0.77292">
        <ele>63</ele>
        <time>2023-11-14T18:15:48Z</time>
      </trkpt>
      <trkpt lat="46.56986" lon="-0.77273">
        <ele>61</ele>
        <time>2023-11-14T18:16:13Z</time>
      </trkpt>
      <trkpt lat="46.57002" lon="-0.77259">
        <ele>59</ele>
        <time>2023-11-14T18:16:38Z</time>
      </trkpt>
      <trkpt lat="46.57038" lon="-0.77251">
        <ele>58</ele>
        <time>2023-11-14T18:17:27Z</time>
      </trkpt>
      <trkpt lat="46.57056" lon="-0.77241">
        <ele>58</ele>
        <time>2023-11-14T18:17:52Z</time>
      </trkpt>
      <trkpt lat="46.57074" lon="-0.77235">
        <ele>57</ele>
        <time>2023-11-14T18:18:17Z</time>
      </trkpt>
      <trkpt lat="46.57091" lon="-0.77222">
        <ele>56</ele>
        <time>2023-11-14T18:18:43Z</time>
      </trkpt>
      <trkpt lat="46.57109" lon="-0.77214">
        <ele>56</ele>
        <time>2023-11-14T18:19:08Z</time>
      </trkpt>
      <trkpt lat="46.57118" lon="-0.7719">
        <ele>55</ele>
        <time>2023-11-14T18:19:33Z</time>
      </trkpt>
      <trkpt lat="46.57117" lon="-0.77163">
        <ele>55</ele>
        <time>2023-11-14T18:19:58Z</time>
      </trkpt>
      <trkpt lat="46.57109" lon="-0.77139">
        <ele>57</ele>
        <time>2023-11-14T18:20:22Z</time>
      </trkpt>
      <trkpt lat="46.57074" lon="-0.77076">
        <ele>60</ele>
        <time>2023-11-14T18:21:37Z</time>
      </trkpt>
      <trkpt lat="46.57089" lon="-0.77062">
        <ele>62</ele>
        <time>2023-11-14T18:22:00Z</time>
      </trkpt>
      <trkpt lat="46.57107" lon="-0.77066">
        <ele>63</ele>
        <time>2023-11-14T18:22:25Z</time>
      </trkpt>
      <trkpt lat="46.57144" lon="-0.77059">
        <ele>66</ele>
        <time>2023-11-14T18:23:14Z</time>
      </trkpt>
      <trkpt lat="46.57161" lon="-0.77052">
        <ele>68</ele>
        <time>2023-11-14T18:23:38Z</time>
      </trkpt>
      <trkpt lat="46.57176" lon="-0.77035">
        <ele>70</ele>
        <time>2023-11-14T18:24:03Z</time>
      </trkpt>
      <trkpt lat="46.57193" lon="-0.77044">
        <ele>69</ele>
        <time>2023-11-14T18:24:28Z</time>
      </trkpt>
      <trkpt lat="46.5721" lon="-0.77057">
        <ele>69</ele>
        <time>2023-11-14T18:24:53Z</time>
      </trkpt>
      <trkpt lat="46.57227" lon="-0.77065">
        <ele>69</ele>
        <time>2023-11-14T18:25:17Z</time>
      </trkpt>
      <trkpt lat="46.57242" lon="-0.77081">
        <ele>69</ele>
        <time>2023-11-14T18:25:42Z</time>
      </trkpt>
      <trkpt lat="46.5726" lon="-0.77092">
        <ele>68</ele>
        <time>2023-11-14T18:26:08Z</time>
      </trkpt>
      <trkpt lat="46.57275" lon="-0.77106">
        <ele>67</ele>
        <time>2023-11-14T18:26:32Z</time>
      </trkpt>
      <trkpt lat="46.57292" lon="-0.77116">
        <ele>67</ele>
        <time>2023-11-14T18:26:56Z</time>
      </trkpt>
    </trkseg>
  </trk>
</gpx>